GFSGL_sfc_30mbdewp_000.txt.gz
Dewpoint
20 23 24 26 27 27 27 31 32 33 34 33 31 32 30 28 30 25 24 24 27 27 22 20 19 20 19 20 18 18 18 19 18 18 21 23 24 29 25 29 29 28 30
21 24 25 27 27 27 27 29 31 30 30 30 31 32 32 28 25 23 23 25 23 20 18 19 18 18 17 17 17 17 18 19 20 21 22 23 24 26 23 26 29 25 26
19 21 25 27 28 28 28 27 28 28 29 30 32 30 27 23 22 23 24 23 19 18 19 19 18 18 17 17 17 19 19 23 24 25 24 24 23 25 24 24 25 24 21
20 23 25 28 29 30 30 30 30 31 32 31 28 28 22 20 22 23 21 19 19 20 20 19 19 19 18 18 20 19 21 21 21 22 23 23 23 23 22 21 18 22 18
21 22 25 29 30 30 31 32 33 33 33 31 31 22 19 21 22 20 19 20 20 20 19 20 20 21 23 23 19 19 19 21 21 22 21 21 23 21 17 20 18 18 19
21 22 27 29 30 30 31 32 33 34 30 23 17 19 21 21 24 26 27 27 25 22 23 24 23 21 20 18 18 18 18 19 19 21 20 20 21 24 25 21 18 17 13
22 23 27 29 29 29 31 32 32 32 30 27 21 22 22 27 28 28 27 23 22 21 18 17 17 16 18 19 20 19 20 23 25 24 22 21 23 23 21 21 20 19 17
21 23 27 29 28 30 30 31 31 31 30 23 22 23 24 23 24 25 23 20 19 17 16 17 17 17 18 17 20 23 21 21 21 21 21 23 24 25 22 21 21 20 21
21 23 25 28 28 29 30 30 29 30 27 22 22 21 15 18 21 19 19 19 18 17 17 17 17 17 17 19 20 20 19 19 19 19 19 20 20 21 26 25 22 21 19
22 24 26 28 28 28 29 27 27 21 20 21 19 17 16 15 17 16 17 17 15 17 19 17 17 17 17 18 22 20 19 20 21 23 22 21 21 22 21 21 23 22 22
23 24 26 27 27 27 25 24 19 21 21 19 18 16 14 15 15 16 16 16 15 18 17 17 18 18 15 14 19 21 21 21 20 21 21 21 22 21 21 20 20 21 20
26 26 26 26 26 24 23 19 20 21 17 17 15 15 15 13 15 17 16 16 15 17 15 17 18 15 13 14 15 18 19 19 20 19 18 19 20 21 22 24 22 22 22
27 27 26 26 25 24 22 19 19 18 16 15 15 13 14 15 14 16 18 16 15 17 15 14 14 13 14 14 14 16 18 17 18 17 17 18 20 22 24 25 26 26 26
28 27 27 26 24 24 21 19 19 18 17 17 17 15 14 14 12 13 16 14 13 15 12 12 13 14 12 14 14 13 15 16 16 16 16 18 21 22 23 25 25 25 24
29 29 28 26 25 24 19 19 19 19 18 17 17 16 14 13 12 15 18 15 13 13 11 10 12 11 10 12 12 12 12 12 13 14 15 16 17 20 22 25 25 25 23
27 26 27 28 30 29 20 21 22 22 21 22 22 17 14 16 16 18 18 16 15 14 9 10 10 10 9 11 12 11 10 9 9 12 13 14 14 16 19 21 23 22 23
28 28 26 29 30 28 24 21 19 20 23 24 24 23 21 16 20 19 18 18 14 13 9 9 8 9 10 11 12 11 10 9 8 10 11 12 13 15 17 18 19 20 20
30 29 28 27 29 28 27 25 22 20 20 21 21 24 24 23 22 20 18 18 13 11 10 10 9 9 11 10 11 10 10 7 6 7 9 10 11 13 14 16 16 17 17
31 30 28 27 22 22 25 26 25 21 21 21 20 21 22 24 24 22 19 15 13 13 11 10 10 9 10 10 8 9 8 7 6 5 7 8 8 11 13 14 14 13 14
32 31 29 25 22 21 22 25 25 22 22 22 20 19 18 18 20 19 14 12 12 13 12 11 11 10 10 10 8 8 7 7 6 6 6 7 8 8 10 11 12 11 11
32 31 29 27 23 24 25 24 23 22 23 23 21 17 17 19 20 18 16 13 13 14 14 13 12 10 9 8 8 8 7 6 6 7 6 8 8 8 9 9 10 11 10
30 30 28 27 27 25 23 22 21 20 22 22 23 19 18 18 20 19 17 16 14 13 14 14 13 12 11 10 9 7 7 7 5 6 6 7 8 9 8 8 8 9 8
29 29 27 25 25 25 22 21 20 19 20 22 23 22 19 20 19 19 20 20 17 15 14 13 12 12 10 9 8 8 8 8 7 7 6 6 8 8 8 7 7 7 6
30 29 28 25 24 22 21 21 21 20 19 21 22 22 21 20 19 20 19 19 17 16 13 12 12 13 12 10 7 6 7 7 7 7 6 6 8 8 7 7 6 6 6
30 30 28 26 25 24 24 24 22 22 21 22 21 22 22 21 20 21 20 20 18 17 16 12 12 13 13 11 9 8 7 9 6 5 5 7 7 7 6 7 6 6 6
30 30 29 28 26 26 26 26 25 25 24 24 24 23 22 21 21 21 21 20 18 18 17 14 12 13 12 11 9 7 7 7 6 4 5 6 6 6 6 5 7 6 5

GFSGL_sfc_30mbdewp_003.txt.gz
Dewpoint
22 25 27 27 28 28 28 29 30 33 35 35 34 33 33 31 29 29 28 26 26 27 27 24 21 20 18 16 17 15 15 14 14 13 12 16 19 20 19 22 26 28 26
22 24 26 27 29 28 29 29 31 31 32 32 33 32 31 30 28 26 25 24 25 24 22 20 19 18 17 18 18 16 16 16 15 13 15 20 19 21 22 24 25 23 28
19 21 24 27 29 29 29 31 31 32 31 33 33 32 28 27 23 24 25 25 23 21 20 20 19 19 18 19 18 17 18 18 18 19 14 14 16 19 21 22 24 25 24
19 20 24 28 29 30 31 31 32 34 34 33 33 31 29 22 22 24 23 21 20 20 21 21 21 21 20 20 22 23 22 19 17 15 16 15 17 16 23 20 20 24 20
21 21 24 29 30 30 31 31 32 34 35 33 30 21 22 22 21 22 21 22 23 23 22 21 20 22 21 20 18 18 17 16 17 16 14 13 15 16 24 25 21 19 19
22 23 25 29 30 30 30 31 32 33 34 28 27 24 23 23 27 29 26 21 18 16 15 14 14 14 14 17 17 17 18 16 17 17 19 14 11 13 19 24 25 20 14
21 22 25 28 29 29 30 29 31 32 33 32 25 24 25 25 26 26 23 16 14 14 13 12 13 12 15 14 14 15 19 19 19 19 18 16 15 16 20 24 23 22 19
19 21 24 27 28 29 29 28 31 31 29 29 25 23 23 21 22 20 20 17 15 14 13 14 13 14 14 16 17 18 16 15 16 17 19 18 17 17 19 23 19 20 18
21 22 23 26 27 28 28 29 29 27 27 27 24 22 15 16 18 18 17 18 17 15 15 15 15 14 15 17 15 17 14 13 17 19 22 22 21 21 21 20 23 20 18
21 23 24 26 28 28 28 28 27 25 19 23 21 17 16 15 16 17 17 18 17 16 15 14 15 16 17 14 14 16 15 19 15 17 18 18 19 18 20 20 17 21 21
24 26 26 27 27 28 28 26 23 20 22 23 20 18 15 15 16 16 17 18 17 15 13 11 14 16 14 14 14 15 18 18 17 18 17 16 17 18 18 19 18 17 17
26 27 27 28 28 27 26 24 20 21 21 22 21 20 18 17 14 17 17 17 16 16 14 13 15 14 13 14 13 15 15 17 18 18 18 17 18 19 19 20 21 21 19
28 27 28 29 28 26 25 22 20 21 20 19 19 20 18 19 17 16 18 19 17 15 16 14 13 14 12 10 12 13 14 14 15 16 16 17 19 21 23 24 24 23 23
28 28 29 28 27 25 24 21 20 21 20 20 21 20 19 18 18 16 18 19 17 16 15 13 14 14 13 12 11 11 12 11 13 15 16 18 20 22 24 27 24 26 23
28 26 26 27 28 27 23 21 21 20 21 21 21 21 22 21 20 18 19 19 18 17 14 14 12 12 11 9 10 10 10 7 10 14 15 16 18 20 22 25 26 26 25
27 26 26 27 27 29 30 25 22 23 21 22 22 22 24 21 18 17 19 19 17 15 14 13 13 12 11 10 9 9 9 7 7 12 14 15 16 18 19 21 23 24 24
28 28 29 29 28 30 30 28 24 23 23 24 25 25 24 23 20 21 20 19 18 16 15 14 15 15 13 10 9 8 8 8 8 11 13 14 15 17 18 18 19 20 21
29 30 30 30 29 29 30 29 28 26 27 25 25 23 25 25 24 22 22 19 19 17 16 15 15 15 14 11 10 8 8 8 7 9 12 13 14 15 16 17 17 17 17
29 31 32 31 30 27 25 26 28 28 27 26 25 24 24 24 26 25 24 22 20 19 18 17 17 16 15 14 14 12 11 10 8 8 11 12 13 13 14 15 17 17 15
30 32 32 31 30 26 25 27 27 28 27 26 25 25 24 21 23 24 25 24 22 20 19 19 18 17 17 16 15 14 12 11 8 7 8 12 12 12 13 14 14 15 14
30 30 29 30 30 29 27 26 26 27 26 25 24 28 24 22 22 23 24 23 22 21 21 21 21 20 19 18 15 14 12 11 10 8 7 9 11 10 10 13 13 14 13
28 29 30 29 29 28 29 29 27 25 25 25 24 26 23 21 23 24 24 24 24 23 22 22 22 21 20 19 17 16 13 11 11 8 7 8 10 10 10 10 11 11 11
29 30 30 29 29 28 28 27 27 26 25 25 24 24 25 25 24 24 24 25 25 25 24 22 22 21 20 19 18 16 14 12 12 10 8 8 10 10 10 9 8 8 8
30 30 30 29 29 28 27 26 27 25 25 25 25 25 25 26 26 25 25 25 25 25 24 21 20 20 20 19 18 16 14 13 12 10 9 8 9 10 10 8 9 8 8
31 30 30 30 29 28 27 27 27 27 27 27 27 27 27 27 27 26 26 25 24 24 23 21 20 19 18 17 17 15 13 12 11 9 8 8 10 10 10 7 9 8 8
30 30 30 30 29 29 28 28 28 28 28 28 28 28 28 27 27 27 27 27 25 24 23 23 21 19 19 18 17 14 10 9 9 7 8 8 9 9 9 8 8 9 9

GFSGL_sfc_30mbdewp_006.txt.gz
Dewpoint
22 25 27 26 26 26 25 24 25 27 27 29 32 34 33 29 28 29 23 20 19 19 19 19 19 18 17 17 16 16 15 14 12 12 14 15 16 17 20 20 21 19 24
22 24 25 26 26 26 25 25 27 28 28 29 30 31 30 28 28 23 20 20 19 19 19 19 18 16 18 17 16 16 16 15 15 15 15 16 17 16 16 19 19 17 30
18 20 22 24 26 26 25 26 27 28 30 31 30 30 28 26 23 20 21 21 21 21 20 20 19 19 18 17 17 16 17 19 21 19 16 15 15 16 17 19 19 20 24
18 19 21 25 26 27 27 26 27 29 30 30 30 30 29 24 21 22 21 22 21 21 22 21 21 19 18 18 16 16 16 19 20 16 14 14 14 13 16 17 24 23 19
19 19 21 25 27 27 27 26 27 30 30 30 28 25 24 24 21 23 24 24 22 19 18 16 14 16 16 17 17 16 16 15 15 15 14 14 16 13 14 15 20 19 27
20 21 22 24 26 27 25 27 26 26 28 28 29 29 27 23 29 27 20 17 17 16 13 13 13 13 14 16 16 16 16 15 15 17 18 18 15 16 19 20 23 18 16
19 20 21 23 25 24 24 24 24 25 27 26 27 28 27 27 27 23 21 17 17 14 13 12 12 11 14 14 14 15 17 20 19 19 17 15 18 17 16 16 19 23 18
18 19 21 23 22 22 22 24 24 25 25 23 23 26 26 23 21 20 19 18 16 14 14 14 14 14 14 16 15 13 12 12 13 14 16 17 19 22 24 19 18 18 18
20 20 17 18 20 20 21 24 25 25 23 22 24 25 24 20 18 18 18 18 18 17 15 14 14 14 15 16 15 13 11 10 17 17 16 18 20 23 22 19 17 15 19
18 17 19 20 20 20 22 25 26 25 24 21 22 23 18 19 17 17 17 19 19 18 16 11 12 16 16 15 15 14 14 13 14 15 15 16 16 18 21 21 15 16 16
20 22 20 20 21 23 25 26 26 25 23 25 24 22 20 19 19 17 17 19 19 17 15 13 11 16 14 14 14 14 15 15 14 16 16 17 16 16 17 19 20 18 16
23 22 22 24 26 26 26 25 26 24 22 25 28 25 22 22 17 18 18 18 17 18 17 16 16 13 14 14 12 13 14 15 15 18 18 18 18 20 21 23 22 21 20
24 24 24 26 26 26 26 26 25 23 22 23 22 23 23 23 22 18 17 18 19 18 18 17 16 14 13 11 10 13 12 12 13 16 16 17 20 22 24 24 23 20 20
25 25 26 25 27 27 26 25 24 23 23 22 22 21 20 20 21 22 21 21 21 20 18 17 16 16 15 13 12 11 12 10 11 15 16 18 20 23 25 26 27 24 24
26 26 25 25 25 26 28 26 24 25 23 23 22 21 23 23 22 22 21 20 20 19 18 19 16 16 14 13 12 11 11 10 7 13 16 17 18 19 21 24 25 27 25
27 26 25 27 26 26 26 27 28 24 22 22 21 23 28 26 23 21 19 20 20 19 17 17 17 17 16 14 13 12 12 10 7 11 15 17 17 18 20 22 23 24 25
28 27 27 27 27 27 28 28 29 26 24 25 25 25 25 26 25 22 21 21 21 19 19 17 18 18 17 14 12 11 10 11 10 8 12 15 16 18 19 19 20 21 22
28 28 28 28 28 27 27 30 30 29 30 29 28 24 25 26 27 25 23 22 20 21 20 19 18 18 17 14 14 13 12 12 12 9 10 13 14 15 18 18 19 19 18
27 27 29 31 32 31 30 28 27 27 29 28 27 27 27 25 26 27 25 24 21 20 19 17 18 20 18 17 17 17 16 14 12 11 11 12 13 12 12 13 17 19 18
28 30 31 30 30 30 30 28 27 28 28 27 25 24 22 25 27 27 28 28 25 22 21 20 19 19 19 19 19 18 17 16 13 10 10 11 13 12 11 12 13 13 12
28 28 27 26 27 30 32 31 29 30 28 26 26 30 27 24 25 25 25 27 27 24 24 22 23 23 22 22 20 18 17 16 15 11 10 10 11 11 10 11 12 11 11
29 29 29 29 29 28 27 28 29 30 30 29 29 28 28 28 27 26 26 27 28 28 26 26 25 24 22 21 20 20 19 17 16 14 12 9 10 11 11 10 10 10 10
30 31 32 32 30 30 30 28 29 30 30 31 30 29 28 29 28 27 28 29 29 29 29 28 28 27 25 24 24 22 19 18 16 16 13 11 10 13 12 11 9 8 8
32 32 31 30 31 30 30 28 29 29 29 30 30 30 30 29 29 29 30 30 31 30 31 30 28 27 25 26 25 23 21 19 17 15 13 11 11 12 13 11 9 9 9
33 32 31 30 30 31 30 30 30 30 30 30 30 30 30 31 30 30 30 31 31 30 30 29 29 27 26 24 24 23 20 17 16 15 14 11 11 11 11 10 9 10 9
32 31 30 30 29 31 30 30 30 29 29 29 29 29 29 29 28 29 29 30 29 30 30 30 29 27 26 25 23 22 20 15 14 12 14 12 12 12 11 11 9 9 11

GFSGL_sfc_30mbdewp_009.txt.gz
Dewpoint
27 26 27 27 27 26 25 24 24 25 24 24 25 27 27 27 26 27 27 28 22 22 23 23 21 20 19 19 18 17 15 15 16 16 15 15 17 19 18 19 20 21 21
26 26 27 28 27 25 25 24 25 25 25 26 27 27 26 25 24 23 23 21 21 22 22 21 20 20 19 16 17 15 16 16 16 16 18 20 19 18 17 18 19 18 21
23 24 24 25 26 25 25 25 25 24 25 27 27 26 25 28 26 25 21 22 24 25 22 23 22 21 16 16 16 17 16 14 16 20 20 20 17 17 16 16 16 19 19
20 20 21 25 25 25 26 26 24 24 26 27 26 25 25 24 20 20 20 22 23 24 25 20 18 16 15 18 16 15 15 16 15 15 15 14 15 16 18 18 18 21 21
20 19 21 24 26 25 26 26 24 25 26 26 25 27 28 26 22 24 25 24 22 20 19 16 14 15 16 16 15 15 15 14 13 12 14 16 16 19 16 16 20 21 21
22 22 23 24 23 23 25 25 24 23 23 23 23 24 29 27 27 25 19 19 19 17 16 15 14 15 14 15 17 18 16 15 15 15 15 15 15 14 15 19 19 18 17
21 21 22 23 22 23 24 21 21 22 23 23 22 22 27 27 27 23 21 17 20 19 16 14 14 12 14 15 16 15 15 16 19 18 17 17 20 18 21 23 20 20 20
20 20 21 21 20 20 20 19 20 22 22 22 21 22 23 26 23 20 19 19 20 19 16 16 14 14 16 17 15 14 13 11 10 12 16 17 16 16 16 16 17 16 16
21 20 21 16 16 17 17 18 20 22 22 22 21 20 20 24 21 19 17 20 21 19 18 16 14 11 18 16 15 14 12 11 11 14 14 16 19 20 20 20 18 15 18
19 21 17 17 17 16 17 18 20 22 22 22 21 21 22 24 20 18 17 20 20 20 18 16 14 15 17 16 15 15 14 13 10 11 13 16 17 17 20 22 19 18 17
20 20 19 17 18 19 20 22 23 23 23 25 25 24 24 22 23 19 18 19 21 19 17 16 16 18 16 15 16 14 15 14 13 16 17 18 17 20 22 20 22 22 23
21 20 19 20 22 23 24 24 24 24 24 25 29 27 25 23 21 20 18 19 18 18 19 18 20 18 16 15 15 12 14 15 16 15 18 18 17 19 20 21 21 21 22
23 22 23 23 25 24 25 25 25 24 24 25 26 27 24 26 30 21 21 19 19 21 20 20 19 18 16 16 14 13 15 15 12 13 16 17 18 20 23 26 31 28 20
26 25 26 26 25 26 26 26 23 23 25 25 25 23 23 19 19 25 23 22 22 22 23 22 20 20 19 19 19 16 15 14 12 11 15 17 20 21 22 23 25 28 27
28 28 26 27 27 25 25 26 28 26 24 27 25 25 25 27 23 24 24 24 23 22 21 20 19 19 17 17 16 15 15 15 13 10 13 17 18 18 18 22 23 24 27
29 28 28 27 27 27 26 26 28 28 28 23 22 25 29 26 25 24 23 21 20 21 19 18 18 22 21 18 16 15 15 14 14 12 11 12 15 17 18 20 22 22 23
28 28 28 28 27 26 27 28 28 29 28 24 23 23 23 28 28 26 23 22 22 22 20 18 20 21 21 19 16 14 14 14 14 14 12 12 13 13 16 20 19 20 19
29 28 28 28 28 30 30 29 30 30 30 31 28 24 25 26 26 27 26 24 22 23 21 19 19 21 20 18 16 16 17 18 17 13 13 14 14 13 14 13 16 19 19
27 28 28 31 31 31 31 31 30 29 28 29 29 30 30 27 27 27 28 25 23 22 21 22 23 21 20 20 20 21 20 19 18 16 15 14 15 14 12 12 12 14 15
28 29 29 30 30 30 29 29 30 30 30 29 29 28 25 27 29 28 28 28 27 25 24 22 21 21 22 22 23 23 21 20 20 18 15 14 14 14 14 11 13 12 11
29 30 30 31 30 28 29 28 28 30 29 28 29 32 29 27 28 29 28 29 29 27 26 26 25 25 27 26 23 22 21 19 18 18 16 15 14 13 14 13 11 11 11
31 31 31 31 32 32 31 30 29 29 28 28 29 30 31 30 29 28 28 28 29 29 29 28 27 26 26 26 25 25 22 21 20 18 18 16 13 13 15 14 12 11 10
32 32 32 31 33 32 33 31 30 30 29 30 30 30 31 32 31 30 29 30 31 30 31 29 29 28 28 28 28 26 24 22 21 19 17 16 14 14 16 15 14 11 10
32 33 33 32 31 32 31 31 30 31 30 30 30 31 31 31 32 31 32 32 32 32 32 32 32 31 28 29 30 27 25 24 22 19 17 16 14 13 14 14 13 12 11
33 33 33 32 31 31 31 30 30 31 31 31 31 31 31 31 31 32 32 32 32 32 32 32 32 31 31 30 29 27 25 23 21 19 18 16 14 14 13 13 13 12 13
31 31 32 32 31 31 30 29 30 31 30 30 29 29 29 28 28 29 29 29 29 29 30 31 31 32 31 30 30 28 25 23 21 18 17 16 15 14 15 14 13 11 12

GFSGL_sfc_30mbdewp_012.txt.gz
Dewpoint
34 32 32 30 31 30 28 26 26 27 27 27 27 28 28 28 28 29 29 27 30 27 28 28 29 30 25 24 23 22 20 19 18 18 18 20 20 22 22 21 21 19 20
32 31 31 32 30 29 27 26 26 26 27 27 28 28 29 28 28 29 28 26 27 30 31 27 27 25 24 23 21 21 21 19 17 16 18 19 20 20 19 19 19 18 18
31 29 30 31 31 28 27 27 27 27 26 27 28 29 28 27 29 29 27 25 25 28 27 27 26 22 19 20 19 17 17 17 19 18 16 17 18 18 18 19 20 22 21
28 27 27 29 28 28 27 28 28 26 26 28 29 29 27 26 25 25 24 27 27 26 26 24 21 19 17 16 15 16 15 17 16 15 15 14 15 17 19 20 18 19 22
27 24 25 27 28 28 28 28 28 27 27 27 27 28 28 30 28 26 26 23 23 21 21 20 18 16 15 17 15 16 18 17 15 15 15 16 16 16 16 19 21 23 22
27 25 24 25 26 27 27 29 29 28 27 25 25 26 26 30 26 24 20 20 21 21 21 19 18 17 20 18 21 20 19 18 16 16 16 17 17 19 23 23 21 21 21
26 24 25 26 27 28 28 26 25 24 26 25 26 25 24 30 27 23 18 18 20 23 21 19 17 15 18 18 18 16 15 17 18 17 16 18 23 20 18 17 16 17 18
24 24 26 27 28 26 23 23 23 24 25 26 25 24 25 28 26 22 17 18 22 23 20 19 18 17 19 18 17 16 16 15 14 15 14 15 16 17 19 19 19 19 19
23 26 29 29 20 19 20 21 21 23 24 25 25 23 24 26 24 20 17 20 24 22 21 20 18 14 20 18 17 17 16 14 15 12 11 14 18 20 21 21 21 21 19
29 27 23 28 22 21 23 22 24 25 25 25 25 24 23 26 24 21 18 21 22 22 22 19 18 15 17 17 17 17 17 17 15 13 16 18 19 20 21 27 24 22 22
27 32 34 28 24 23 24 26 27 26 27 28 26 26 26 26 23 22 20 19 22 22 20 19 21 19 20 19 16 18 17 16 16 17 18 18 21 21 21 21 23 26 24
34 35 28 26 26 25 27 27 28 27 27 28 28 28 27 26 25 23 22 20 20 18 20 22 23 21 20 19 18 18 16 17 17 18 16 18 19 20 21 23 24 26 30
33 28 29 28 27 27 27 27 28 28 27 27 28 29 28 29 28 24 23 22 21 19 22 23 22 21 22 20 20 17 17 17 19 14 14 15 18 20 22 23 24 25 29
30 31 30 30 29 27 27 26 26 29 28 27 27 27 28 27 27 26 24 23 22 22 22 24 23 21 20 20 20 21 20 19 17 15 13 15 18 20 20 21 21 24 24
30 30 30 29 29 29 28 26 27 28 29 27 28 29 28 27 25 26 27 27 27 26 24 21 21 21 21 20 19 19 18 18 17 16 13 15 16 17 18 20 21 23 22
31 30 31 30 30 29 29 28 28 28 28 29 28 24 29 30 26 24 24 24 22 21 20 20 20 20 22 21 19 19 17 17 16 15 16 14 15 16 16 17 21 21 21
29 29 30 29 30 30 29 29 29 30 30 30 29 27 24 31 27 26 25 24 23 22 20 20 20 21 22 21 20 19 17 18 18 17 15 15 16 16 16 17 17 20 19
30 30 30 30 30 30 31 31 31 31 30 29 31 29 26 25 25 27 27 26 23 23 22 22 22 22 22 22 20 19 19 20 19 19 16 16 17 17 15 15 15 16 16
28 29 30 31 31 32 31 30 28 29 30 30 29 30 30 28 27 26 28 26 24 23 23 24 24 23 23 23 21 21 22 21 20 18 17 18 17 16 17 15 13 15 15
29 30 29 30 31 30 29 29 28 28 28 29 32 32 30 30 29 28 28 27 26 25 24 24 23 23 23 23 23 23 23 23 21 22 20 17 16 16 15 16 13 13 14
31 31 31 32 32 31 30 30 30 30 29 28 29 30 31 32 31 30 28 28 27 27 26 26 25 25 25 25 25 24 23 22 21 20 18 17 17 14 14 16 15 13 12
32 32 32 32 32 32 32 33 33 32 31 30 29 29 29 30 31 31 31 31 31 29 29 28 28 27 27 27 27 26 24 23 22 21 19 18 17 14 15 16 16 14 12
30 32 33 32 31 31 33 33 31 29 30 30 30 29 29 30 31 31 31 32 32 32 32 32 31 31 30 29 28 27 26 24 23 22 19 18 17 15 16 15 16 14 11
24 25 26 28 29 31 32 32 31 31 31 31 31 31 30 31 31 31 31 32 32 32 32 32 32 31 31 31 31 30 27 26 24 23 20 18 17 16 14 14 15 14 12
25 25 26 26 26 27 30 31 31 30 29 29 31 30 31 31 30 30 30 31 31 31 32 32 32 32 32 31 31 31 29 27 25 22 19 17 16 15 14 13 13 13 12
23 21 22 25 28 29 29 30 29 28 28 29 30 29 29 28 28 27 27 27 27 27 27 28 28 30 31 31 32 31 30 28 26 21 20 18 16 14 14 13 13 13 12

GFSGL_sfc_30mbdewp_015.txt.gz
Dewpoint
34 32 32 31 32 30 29 27 27 27 27 27 28 28 29 28 29 29 28 26 30 30 30 29 28 28 26 25 24 22 20 19 17 18 19 21 20 20 20 22 21 19 20
34 33 32 32 31 30 29 28 27 26 28 27 27 29 29 30 30 29 29 28 28 28 30 29 27 26 23 22 21 18 17 17 18 17 17 17 18 19 19 18 19 20 21
32 32 33 32 32 30 29 27 28 27 26 27 28 28 29 28 27 28 29 27 27 27 28 27 26 24 19 18 16 15 16 16 17 17 16 16 16 17 17 19 20 21 20
32 31 32 32 32 31 29 28 28 27 26 26 27 29 30 28 27 28 27 26 25 23 23 23 22 17 15 15 15 15 15 17 17 16 15 15 16 17 18 18 20 24 23
31 29 30 32 33 29 29 29 29 29 27 27 27 28 29 30 30 27 24 22 22 21 22 21 19 19 19 17 15 16 18 18 18 17 16 16 16 17 18 23 22 20 19
28 26 29 31 30 28 29 29 29 29 29 28 28 27 27 31 28 25 23 20 20 20 22 21 18 17 19 20 21 20 19 17 17 18 17 16 17 18 24 20 18 16 14
28 28 30 28 29 31 31 30 29 29 29 28 27 26 27 29 28 24 20 17 18 21 23 19 18 20 19 17 17 17 16 17 17 17 16 14 13 15 18 17 17 18 18
28 28 30 31 32 30 31 30 27 27 26 25 27 28 28 29 28 25 18 17 20 23 21 20 19 18 18 17 17 16 17 17 16 16 15 14 15 17 19 19 19 20 20
29 30 33 31 31 31 29 28 29 28 26 26 27 27 29 29 28 22 17 20 23 23 22 21 21 17 20 19 17 16 17 17 16 16 16 18 20 20 21 24 23 23 19
31 34 32 31 30 27 28 30 29 28 27 27 26 26 27 26 26 22 18 21 21 22 22 20 19 17 18 19 18 17 16 15 17 16 17 18 19 20 23 22 22 22 22
35 34 33 34 32 30 29 29 28 28 28 27 27 26 26 25 25 24 21 20 19 22 21 19 21 20 20 21 20 18 17 18 18 17 18 18 18 21 21 21 23 24 23
34 33 34 33 31 29 28 28 28 28 28 28 28 26 26 26 24 26 24 21 21 19 18 19 22 23 22 21 22 21 21 21 18 16 18 14 16 17 19 21 23 24 24
35 35 33 32 31 29 29 27 27 28 28 29 28 27 27 27 26 26 26 24 22 19 18 20 23 24 22 23 23 22 22 19 16 16 15 14 13 17 20 21 22 22 23
31 32 32 31 30 30 29 28 27 27 27 27 27 28 28 28 28 26 25 25 24 22 20 21 23 23 23 21 21 21 21 20 19 17 14 13 15 17 17 19 19 20 23
30 31 31 31 31 30 29 29 28 27 27 26 26 27 27 27 27 27 25 24 23 22 21 21 22 20 19 20 21 20 19 19 17 16 13 14 15 16 16 18 18 21 21
30 30 30 30 30 30 29 29 29 29 27 28 29 28 27 28 29 28 28 27 26 26 25 22 20 17 18 19 20 20 19 18 17 15 15 16 14 16 16 17 18 19 19
30 29 28 29 29 28 28 29 28 30 31 30 30 30 29 27 29 27 27 27 27 25 21 18 17 18 18 19 21 20 19 18 17 17 17 14 14 16 16 16 16 15 16
30 29 28 29 29 29 29 29 30 29 26 26 29 31 30 30 28 28 27 26 25 24 21 20 19 19 19 21 21 21 19 18 18 17 17 15 14 16 15 16 15 14 14
29 28 28 29 29 29 30 31 29 28 27 26 27 29 30 30 30 28 28 28 25 23 22 22 22 21 21 22 22 21 19 18 19 17 17 15 17 16 15 14 15 13 13
31 31 30 30 30 30 30 30 30 29 27 27 27 27 29 29 29 29 29 28 26 25 24 23 23 23 24 24 24 23 20 20 20 18 18 18 17 14 14 12 14 14 12
28 29 30 31 31 31 31 31 31 30 28 28 28 28 28 30 30 30 30 28 28 27 26 26 25 24 24 23 23 22 22 22 21 20 20 17 14 15 14 12 14 15 13
26 25 24 23 24 25 26 30 31 30 30 31 31 31 29 28 29 29 31 30 29 28 29 29 28 26 26 25 25 25 23 23 21 20 19 17 16 15 13 13 15 16 12
19 21 22 23 24 24 24 25 26 28 30 31 30 30 29 29 29 29 30 31 32 31 30 30 30 29 28 28 28 27 26 24 23 22 20 18 17 16 14 14 15 14 12
22 22 20 19 20 20 23 26 26 27 28 30 30 30 30 29 29 30 30 31 32 32 31 31 31 31 31 31 31 31 30 28 25 23 22 19 17 16 14 14 12 14 12
17 14 14 15 16 17 17 18 21 24 26 28 28 29 28 29 30 29 28 28 27 28 29 30 31 31 31 31 31 31 31 29 27 26 22 19 17 16 14 13 13 13 12
13 11 10 11 12 13 13 14 15 15 16 17 18 20 21 21 21 22 22 19 19 20 19 19 19 21 23 27 27 28 31 30 28 25 23 20 17 15 13 13 12 12 12

GFSGL_sfc_30mbdewp_018.txt.gz
Dewpoint
37 33 31 30 30 29 27 28 28 27 28 27 28 28 28 29 30 29 29 28 29 30 30 29 28 28 26 25 23 22 19 17 15 17 19 19 18 19 18 20 19 19 21
33 31 31 33 32 30 28 29 28 27 28 27 27 27 29 29 30 29 28 29 29 28 29 29 28 27 24 22 20 17 16 16 17 15 16 16 17 17 18 18 19 19 21
32 33 34 33 31 30 30 29 29 28 27 27 26 27 28 30 30 29 29 29 28 29 30 28 26 25 20 20 17 15 16 16 17 17 16 16 16 17 17 19 20 20 23
33 33 33 33 32 31 30 29 28 28 27 26 27 27 29 30 29 28 27 26 26 24 23 22 21 19 16 16 15 15 16 17 17 17 17 17 16 17 18 18 20 22 20
34 34 34 33 34 33 30 29 29 29 28 27 27 28 28 30 30 29 27 25 23 22 22 21 20 20 22 17 16 18 18 18 17 16 17 17 17 17 18 20 22 19 17
34 33 33 35 33 31 30 30 29 30 30 30 29 30 29 29 30 30 27 23 21 20 20 22 18 19 21 22 22 21 18 16 16 17 18 15 16 14 16 16 18 16 16
33 32 35 32 31 32 31 30 31 31 32 31 31 31 29 29 29 30 26 21 19 20 23 20 18 20 20 18 18 18 16 17 16 17 15 16 14 14 16 18 19 19 19
32 32 32 33 32 33 32 31 32 32 29 28 27 28 29 29 30 28 23 20 19 21 23 20 20 19 18 17 17 16 16 16 16 17 17 16 17 19 20 21 23 24 23
32 33 33 33 31 32 33 33 32 31 29 28 27 28 27 29 30 27 20 18 20 22 23 22 21 20 19 21 17 17 17 16 16 17 18 19 20 18 21 23 20 21 18
32 32 32 33 33 34 34 34 33 29 28 28 28 27 28 28 30 26 20 21 20 22 22 22 20 18 21 20 19 19 18 16 16 17 18 17 19 18 19 21 21 20 20
35 35 36 36 37 36 34 32 29 28 29 28 28 29 27 27 28 26 23 20 20 20 22 21 21 21 20 21 23 21 19 18 19 20 19 17 19 17 19 20 21 22 21
36 37 38 37 36 33 29 28 28 28 27 28 28 28 27 26 26 27 26 22 21 20 21 21 20 23 23 24 22 23 23 23 22 20 17 17 17 14 17 19 21 22 23
36 37 36 33 32 31 30 29 28 27 27 27 27 26 27 26 25 27 27 26 23 21 21 19 19 22 23 24 24 23 23 22 20 18 17 17 15 14 18 19 19 20 21
31 31 31 31 31 31 30 30 28 27 27 27 26 25 26 28 28 26 27 28 27 23 21 21 21 23 24 23 22 21 21 21 20 18 17 15 14 16 16 17 18 19 21
29 30 30 30 29 30 30 29 29 29 28 27 26 25 24 25 27 29 28 26 26 24 21 20 19 19 20 22 20 20 21 20 19 18 16 13 15 15 16 17 17 18 18
29 29 29 29 28 28 29 29 29 30 30 30 29 27 27 28 28 29 29 29 27 25 23 21 20 19 20 21 18 18 19 19 19 17 14 15 14 13 16 16 17 16 15
29 29 29 29 28 27 28 27 27 28 29 30 30 30 30 30 30 29 30 30 28 28 24 24 22 21 20 19 18 18 18 19 18 16 16 15 14 14 16 15 15 15 14
30 30 29 29 28 28 28 28 28 28 28 29 28 28 28 28 30 31 30 30 28 28 26 24 21 20 18 18 19 19 19 19 18 16 16 15 13 13 16 15 14 14 14
29 28 29 29 29 30 30 30 30 30 30 31 30 28 27 28 29 31 31 29 27 25 25 23 22 20 20 20 20 21 20 19 18 17 17 15 14 15 16 14 12 14 13
26 26 25 24 23 23 23 24 25 28 30 31 30 29 28 27 28 28 29 29 29 27 26 25 24 23 22 22 22 21 21 20 19 17 17 16 15 16 15 14 11 13 15
19 20 20 21 22 22 22 23 23 23 23 24 25 30 30 28 29 29 29 28 29 28 27 26 26 26 25 25 24 23 23 22 21 20 19 17 16 16 14 13 11 14 16
20 20 21 19 18 19 19 19 19 21 23 23 24 26 29 29 29 30 30 30 30 29 28 28 27 27 27 26 25 24 22 21 21 21 20 19 17 15 14 13 12 15 15
17 14 14 14 14 15 15 15 17 17 17 19 22 26 27 28 28 29 29 29 31 31 30 29 30 29 29 28 28 28 26 24 23 23 22 20 18 15 13 13 13 14 13
15 10 9 10 11 11 11 12 13 12 13 13 14 17 18 24 29 29 29 30 30 29 29 30 31 30 30 29 29 29 29 28 27 25 25 23 20 17 14 13 13 13 13
11 9 7 8 8 8 8 9 9 9 10 11 12 12 14 14 17 16 18 18 19 19 18 19 20 20 21 26 30 31 31 30 29 27 25 24 22 19 16 14 13 12 13
9 9 7 5 6 6 6 6 6 7 7 8 9 10 11 12 12 13 13 14 14 15 15 17 17 17 18 18 19 21 26 28 30 28 26 24 22 19 16 14 12 13 12

GFSGL_sfc_30mbdewp_021.txt.gz
Dewpoint
39 39 39 34 33 31 29 29 30 30 30 29 29 28 28 29 30 29 28 27 28 29 30 30 29 29 29 26 24 22 20 18 15 15 18 18 18 17 17 19 20 20 21
38 37 36 35 33 30 29 32 31 28 29 29 28 28 29 29 30 30 29 29 29 29 29 29 28 28 26 23 22 18 17 16 16 14 16 16 17 16 17 18 18 19 20
40 38 35 32 31 31 33 31 30 29 29 28 27 27 27 29 30 30 29 29 29 29 29 29 28 27 25 22 19 17 16 16 17 17 17 17 17 17 17 18 19 20 22
39 37 35 33 32 33 30 30 30 30 29 28 28 28 28 29 30 30 29 28 28 28 29 29 27 24 20 17 17 16 15 15 17 17 16 16 17 18 18 17 15 17 18
38 37 34 36 35 32 32 31 31 30 28 28 28 29 30 30 29 29 28 27 27 26 24 23 21 21 20 18 16 15 17 18 17 15 15 17 16 16 15 14 16 17 19
37 35 36 36 34 34 32 31 31 31 30 30 32 32 31 31 30 30 29 27 26 23 21 22 21 22 22 23 22 22 19 16 15 15 15 14 15 15 15 16 18 18 17
36 36 36 37 34 32 31 32 32 33 36 36 33 30 28 30 30 30 32 27 24 22 21 22 21 18 20 22 23 21 19 18 17 16 14 15 16 15 17 18 19 20 20
36 35 35 33 33 33 32 33 34 36 35 33 31 29 29 29 29 30 31 25 22 21 22 22 20 19 20 19 17 16 16 17 16 16 17 18 18 19 19 20 23 22 22
34 34 33 34 33 34 35 36 37 36 35 31 29 28 28 28 29 31 28 22 21 20 23 22 21 21 21 23 19 17 17 18 17 17 18 19 20 20 19 18 18 19 17
33 33 34 35 37 37 38 37 36 34 30 29 29 29 29 28 29 31 26 22 21 21 23 23 25 22 21 23 21 18 19 19 17 16 18 19 19 19 19 18 20 18 17
36 37 38 38 38 38 37 37 34 30 29 28 27 28 29 29 28 31 28 22 23 22 22 21 22 22 22 23 22 21 21 20 19 21 21 20 19 19 17 17 19 20 19
37 38 39 39 38 37 35 31 29 28 28 27 27 27 27 27 28 28 30 25 23 21 21 22 22 23 23 22 23 24 24 24 23 22 20 19 18 17 16 16 19 20 21
37 37 37 36 34 32 31 30 29 29 27 27 26 26 26 25 27 27 28 29 26 22 22 22 23 23 23 24 25 25 24 22 21 19 19 18 17 17 16 18 18 19 20
30 30 30 30 30 30 30 30 30 29 27 27 27 27 26 26 25 27 27 28 29 27 23 24 24 23 22 23 23 24 23 21 20 19 18 17 16 15 15 17 17 17 18
29 29 29 29 29 28 28 28 29 29 29 28 28 27 27 26 25 26 27 27 28 28 27 24 23 22 20 21 22 21 21 20 20 19 18 17 15 15 15 16 17 17 15
29 29 29 29 28 28 28 28 29 30 30 30 30 29 29 28 28 28 29 30 30 28 25 24 23 22 20 20 19 20 20 18 18 19 18 16 15 15 14 16 17 15 15
28 27 27 27 27 28 28 28 27 28 29 29 30 30 30 30 29 30 30 31 30 30 25 24 23 23 22 21 21 20 20 18 18 18 18 16 15 14 13 15 15 15 14
26 26 26 26 25 25 24 24 25 24 25 27 29 30 30 31 31 31 31 32 30 30 27 25 25 25 23 22 21 20 20 19 17 17 17 15 15 14 13 14 15 13 13
21 22 22 22 22 22 22 22 22 21 21 21 22 22 25 29 31 31 30 30 29 28 27 27 26 25 23 22 22 20 19 18 17 16 17 16 14 15 14 14 15 13 13
19 20 20 21 20 18 18 19 18 18 18 19 20 21 22 23 25 26 27 28 29 29 28 26 26 25 24 23 22 21 20 20 18 17 17 17 16 15 15 15 13 12 14
18 17 18 17 16 16 16 15 16 16 17 15 15 16 17 20 24 25 25 26 29 29 29 28 26 26 25 25 24 23 22 21 20 19 18 18 16 16 15 15 13 11 14
15 11 11 12 13 12 12 12 12 13 12 12 12 13 14 15 16 17 26 30 31 30 29 29 28 27 27 26 25 24 23 22 22 22 21 20 18 17 17 15 12 11 15
13 7 8 8 9 9 8 8 9 9 9 9 10 11 11 12 13 13 14 16 28 31 31 30 30 29 28 28 28 27 25 24 23 23 23 21 19 19 17 15 13 12 13
10 7 6 5 6 6 5 6 6 6 6 6 7 8 9 10 11 12 12 13 14 16 18 19 20 21 23 29 29 28 28 27 27 25 25 23 21 19 17 15 13 12 12
7 7 4 3 3 3 3 4 3 3 4 4 5 6 7 8 9 9 10 10 11 12 14 15 17 17 19 20 22 25 28 28 28 27 26 25 22 20 18 16 15 12 12
5 3 4 1 0 0 -1 1 -0 1 1 2 3 4 4 5 5 6 8 7 8 9 10 12 14 15 16 18 19 20 21 24 27 28 26 25 22 20 18 17 15 14 13

GFSGL_sfc_30mbdewp_024.txt.gz
Dewpoint
47 46 44 42 42 38 34 32 32 32 31 31 30 31 30 30 31 30 31 30 28 27 29 30 30 30 30 30 26 24 22 20 18 16 18 18 18 17 17 18 19 20 20
46 44 43 40 37 34 32 31 31 31 32 31 30 30 30 30 30 30 29 28 28 28 28 30 29 29 28 26 25 22 20 18 16 14 16 16 17 17 17 18 18 18 20
43 43 41 39 35 33 31 32 33 32 31 30 30 29 29 29 30 31 31 29 29 29 29 29 28 28 27 26 23 21 18 17 17 17 16 18 17 16 17 18 19 18 18
43 41 41 40 36 34 33 34 32 31 30 29 29 29 29 30 31 30 30 30 29 29 29 29 29 28 27 24 21 19 17 16 16 17 17 16 15 16 18 17 14 16 17
42 41 40 39 36 34 33 32 32 31 30 29 30 29 33 35 30 30 30 29 29 28 29 29 28 26 25 21 17 17 16 15 17 17 15 14 14 14 15 15 16 17 18
41 40 39 37 35 34 33 32 31 30 30 29 31 37 38 33 31 31 31 30 28 27 26 24 22 24 25 26 26 21 17 18 16 15 14 13 12 15 16 16 18 17 15
40 39 38 37 35 34 32 31 31 32 36 37 38 38 33 31 30 30 31 32 29 27 25 23 22 21 21 21 24 25 24 22 19 17 15 14 14 16 17 18 18 19 18
37 37 36 35 34 33 33 35 36 37 38 38 38 35 31 29 29 29 29 31 29 27 24 22 22 21 20 20 21 21 19 17 17 18 16 15 17 18 20 20 19 19 19
35 34 34 34 35 35 36 37 38 39 38 37 36 31 31 30 29 29 30 30 27 25 23 23 23 21 21 24 20 18 17 17 19 20 19 20 21 21 21 21 16 16 15
34 35 36 37 38 38 38 38 38 37 36 33 32 31 29 28 29 30 31 28 25 23 22 23 25 22 23 24 24 21 18 17 19 18 16 18 21 20 21 19 17 16 16
37 38 39 39 39 39 38 38 37 35 34 31 28 28 28 28 28 28 30 27 25 24 23 23 23 26 26 25 25 22 20 19 20 19 19 21 21 20 19 18 17 18 17
38 38 39 39 38 38 36 35 32 30 28 28 28 27 27 27 27 27 29 31 26 24 23 24 23 24 25 25 24 24 23 23 23 22 22 21 20 19 18 17 17 19 20
34 33 32 31 31 31 30 29 29 29 28 28 27 27 27 28 27 27 28 29 31 26 25 24 24 24 26 26 26 24 24 24 22 21 20 19 19 19 18 17 18 18 18
28 29 29 29 29 29 29 28 28 28 27 27 27 27 27 28 27 27 26 27 28 29 27 25 25 25 25 25 23 25 26 24 23 21 19 19 17 17 16 17 16 17 17
29 28 27 27 26 26 27 28 28 28 29 28 28 28 28 27 28 28 28 27 26 27 28 26 24 24 24 24 24 23 23 23 21 20 18 19 18 16 15 16 16 17 15
25 25 25 25 25 25 25 23 25 27 27 29 30 30 30 30 30 31 31 30 29 28 27 26 25 24 23 24 23 23 23 22 21 20 18 18 18 17 15 15 16 16 14
23 24 23 23 22 22 21 21 20 20 20 21 21 22 22 23 24 25 27 29 32 31 29 27 25 24 24 23 23 23 22 22 23 20 19 17 17 16 15 14 13 15 14
20 21 21 21 21 20 20 20 20 19 18 17 18 17 19 20 20 23 24 25 26 29 29 28 26 25 25 23 23 23 23 23 20 19 18 17 17 16 14 15 13 14 14
18 19 19 20 19 17 17 17 16 16 16 16 15 15 15 15 16 17 20 23 23 25 27 28 27 27 27 26 24 24 23 22 21 18 18 16 15 15 15 15 14 14 13
16 15 15 15 15 14 14 13 13 13 13 12 12 12 13 12 12 14 14 14 16 23 26 27 28 28 27 26 24 24 23 22 20 18 17 17 15 15 16 16 15 14 14
12 11 11 12 12 11 10 11 11 11 9 9 9 10 10 11 11 11 12 12 13 14 16 28 28 28 27 26 25 23 22 21 21 20 19 17 15 16 16 17 17 15 13
9 7 8 9 9 8 7 8 8 7 6 6 6 7 8 8 9 9 10 10 11 13 15 15 28 28 28 26 25 24 23 22 22 22 20 18 16 16 16 17 16 15 13
9 4 5 5 5 5 4 3 5 4 4 4 4 4 5 6 7 7 7 9 9 10 12 14 15 19 25 28 28 27 25 23 23 24 22 20 18 17 18 17 16 14 12
7 5 3 2 1 1 -0 -1 2 0 1 2 1 2 3 3 5 4 5 6 7 7 10 11 13 14 15 18 22 28 28 28 27 26 25 23 21 19 18 18 16 15 13
2 2 2 -1 -2 -3 -4 -3 -2 -3 -2 -2 -2 -0 0 0 2 2 3 4 4 5 7 8 10 11 13 14 18 20 22 27 27 26 26 25 22 20 19 18 16 15 12
1 -1 1 -2 -4 -5 -6 -6 -6 -6 -5 -4 -4 -3 -2 -2 -0 -0 -0 1 1 2 5 6 8 9 11 13 15 17 19 21 24 26 26 25 23 20 19 17 16 15 14

GFSGL_sfc_30mbdewp_027.txt.gz
Dewpoint
55 55 53 51 50 48 45 43 39 36 36 35 33 35 35 34 34 34 34 35 36 35 33 31 31 32 31 31 31 30 27 25 20 17 18 18 18 17 17 13 12 14 15
52 53 52 51 49 46 44 41 38 37 36 33 34 32 31 31 32 31 32 30 32 30 30 31 30 30 31 31 30 28 26 24 21 16 16 16 16 17 15 13 12 14 15
50 49 48 48 46 45 44 41 38 35 34 33 32 30 31 31 31 33 33 32 31 31 30 30 30 31 30 29 28 27 25 22 20 18 16 16 17 15 13 10 13 14 13
47 47 46 46 44 43 41 37 35 35 33 32 31 30 32 32 33 36 35 32 32 32 32 31 31 31 29 29 28 26 23 20 18 17 16 15 14 13 12 11 11 12 12
45 45 45 45 43 40 36 35 35 33 32 32 32 32 35 37 39 39 35 32 32 31 32 32 31 31 30 29 26 24 20 19 18 17 15 14 12 11 8 12 13 13 13
44 43 43 42 39 37 36 35 34 33 32 31 32 37 40 40 39 37 33 31 31 31 30 31 30 31 31 30 26 22 20 19 18 17 14 13 13 11 12 14 15 14 11
42 42 40 39 37 36 35 34 32 32 34 37 40 39 38 40 36 32 31 30 31 30 30 30 28 25 27 25 27 27 25 21 20 18 16 15 15 11 13 14 14 14 13
38 38 38 37 36 34 34 36 38 39 40 39 38 38 38 35 32 34 31 30 30 30 30 30 29 26 24 24 22 22 23 23 22 20 18 17 15 13 16 17 17 17 14
35 35 35 35 35 36 37 39 39 39 39 38 38 38 34 35 37 31 30 30 30 29 29 28 28 27 25 24 22 22 21 19 19 20 20 22 19 20 22 20 17 14 14
36 36 37 37 37 38 38 39 39 39 38 38 36 35 36 36 32 30 30 30 30 30 29 27 26 25 25 25 24 23 21 18 17 17 18 19 20 19 22 22 18 16 14
38 38 38 38 38 39 39 38 37 36 35 34 32 32 31 31 30 30 29 30 30 29 28 27 26 27 26 26 26 26 25 22 19 18 18 15 16 18 19 19 18 16 15
38 37 36 36 35 35 34 33 32 31 31 30 31 30 30 30 29 29 29 29 29 30 29 28 28 27 27 27 27 27 26 24 22 21 21 19 19 19 18 18 18 17 16
29 29 29 29 29 29 29 29 29 29 29 29 29 29 29 30 30 30 30 29 29 30 31 30 28 27 27 28 28 26 27 25 23 23 21 20 20 19 18 20 19 18 15
29 28 27 26 26 25 25 25 24 25 25 25 25 26 27 28 28 29 30 31 31 30 30 31 29 27 27 27 26 28 26 26 25 23 22 21 21 21 21 20 19 17 16
24 23 22 21 19 18 18 19 19 20 23 22 22 23 23 23 23 23 23 24 26 29 31 31 31 29 27 26 26 27 27 28 27 26 26 23 21 20 21 20 20 16 16
19 18 19 19 19 17 16 14 18 19 20 20 19 19 19 20 19 19 19 20 22 25 25 25 28 29 28 28 27 27 27 27 27 26 26 24 21 20 20 20 19 17 16
17 17 17 17 16 15 15 15 14 15 17 17 17 17 16 16 17 17 17 17 20 24 24 25 25 28 29 28 27 27 27 27 26 26 25 25 23 21 20 20 19 18 17
16 18 17 15 14 14 14 14 14 13 13 13 13 13 13 13 13 15 15 15 14 16 18 22 25 26 29 28 27 27 28 26 26 25 25 26 24 22 20 20 19 19 18
11 11 15 15 14 14 13 12 12 11 11 11 10 10 10 10 11 12 12 13 13 12 13 14 15 18 26 28 29 28 27 27 27 24 24 24 24 21 20 20 20 19 18
11 11 11 12 11 10 9 9 9 9 8 8 8 8 7 8 9 10 10 10 11 10 11 12 13 16 17 28 29 28 28 27 26 25 24 24 23 21 20 20 21 21 18
9 8 9 9 8 8 7 7 7 7 6 6 6 6 5 6 7 7 8 8 8 9 10 10 12 14 16 23 30 28 27 26 25 25 23 24 23 21 20 21 22 21 20
7 6 6 6 6 6 4 4 5 4 3 4 4 3 3 5 5 5 5 6 7 8 9 10 11 12 15 16 20 28 26 25 25 24 24 24 23 22 20 21 21 22 20
6 5 5 3 3 2 2 1 2 2 2 2 2 1 3 3 3 3 4 4 5 6 7 8 9 10 12 14 16 20 27 26 26 27 25 24 22 22 21 20 21 22 21
5 5 3 2 2 -0 -0 -0 0 -1 -1 -0 0 -0 0 1 1 2 2 2 2 4 5 7 8 9 9 11 14 17 20 25 30 28 26 24 23 23 21 21 22 21 20
4 3 3 2 0 -1 -2 -2 -2 -2 -2 -2 -1 -1 -2 -1 -1 -0 1 1 1 1 1 4 7 7 8 9 12 14 15 20 26 29 28 26 24 23 22 21 21 21 20
3 1 1 1 -0 -1 -2 -3 -4 -4 -4 -3 -2 -3 -3 -2 -2 -1 -1 -1 -1 -1 1 2 4 5 7 9 11 12 14 16 19 24 28 27 25 24 23 23 22 21 19

GFSGL_sfc_30mbdewp_030.txt.gz
Dewpoint
56 57 57 57 56 53 52 50 48 47 43 40 39 41 41 42 39 37 35 31 36 34 34 31 29 27 25 25 25 25 24 24 21 20 18 17 20 20 18 17 16 13 11
55 56 57 57 55 54 53 52 49 47 41 39 41 39 35 36 34 33 30 31 33 35 31 30 27 25 27 28 27 26 25 24 22 20 20 18 18 18 17 17 13 10 12
55 54 55 55 54 53 51 49 46 42 41 41 38 33 33 32 30 32 33 36 39 35 30 28 28 28 28 28 28 26 24 23 23 21 20 19 18 15 15 14 12 12 11
52 52 52 52 52 51 50 48 46 43 41 37 35 33 33 30 29 34 39 40 39 34 31 31 30 29 28 29 28 27 26 25 24 21 19 17 15 13 13 11 7 10 10
49 49 49 50 49 48 47 46 44 42 38 35 34 34 33 33 38 41 40 39 36 32 32 31 31 31 31 30 28 27 27 25 24 20 18 16 12 10 10 10 9 11 12
47 46 46 46 44 43 41 39 37 35 34 34 33 36 38 40 40 40 39 38 35 32 31 30 29 31 32 33 32 30 27 26 24 21 19 15 12 12 12 10 11 12 10
44 43 43 42 41 40 38 35 34 33 35 34 37 37 38 38 40 38 36 34 36 35 32 30 28 26 28 30 32 31 27 22 22 22 20 16 14 14 14 10 11 12 12
40 40 40 40 38 36 35 35 36 37 38 38 39 37 36 37 39 35 37 37 37 31 29 27 26 26 26 27 29 28 26 26 24 20 20 17 15 16 14 12 15 16 15
37 37 37 37 37 37 36 37 38 37 37 37 37 37 37 39 36 37 38 33 29 28 27 27 26 26 27 29 27 27 27 26 24 25 24 22 21 20 18 15 17 15 16
37 37 37 37 37 37 38 38 38 38 38 38 38 37 37 37 37 36 32 31 29 28 28 27 27 28 28 29 27 27 27 26 23 19 19 21 22 21 23 20 17 16 15
37 37 37 37 38 38 38 38 37 36 36 35 34 32 31 31 30 31 31 30 30 30 29 28 28 29 28 29 27 28 29 28 24 19 18 17 17 15 15 19 18 16 16
36 36 35 35 33 32 31 29 27 27 28 28 30 29 30 30 30 31 31 31 30 30 30 31 31 31 30 28 29 27 28 28 27 24 22 19 18 15 15 15 16 16 16
28 27 27 27 27 27 28 27 26 26 27 27 25 25 24 25 24 27 24 24 24 25 27 30 31 31 31 30 29 28 28 28 30 27 26 23 22 20 19 18 17 17 17
26 26 25 24 23 22 20 17 17 19 19 17 18 18 18 19 19 21 19 19 19 21 22 24 25 25 31 32 32 30 29 29 29 28 26 26 26 26 21 19 18 18 18
23 21 20 19 14 13 12 15 15 18 19 17 18 17 19 19 19 18 18 19 19 20 21 24 23 22 21 27 30 32 33 31 30 30 29 29 29 28 26 22 20 18 17
17 15 17 16 15 11 10 11 19 19 18 18 18 18 17 17 16 16 16 17 17 17 17 20 24 25 25 22 23 29 32 32 31 31 31 29 29 27 26 23 20 18 17
13 14 15 14 12 12 12 12 11 15 15 15 15 14 14 13 14 14 15 14 15 15 15 16 17 20 21 21 25 27 29 30 31 31 30 29 28 27 27 26 22 19 18
14 16 13 12 12 13 12 13 13 13 13 13 12 11 11 11 11 12 12 13 12 12 13 13 14 16 16 18 20 22 30 28 31 30 30 29 29 27 26 25 22 19 18
9 10 14 15 14 12 12 11 11 11 11 10 10 9 9 8 10 11 11 12 11 11 11 11 12 13 14 16 19 20 24 31 31 30 29 28 28 27 26 25 21 19 18
11 12 12 11 11 10 9 10 9 10 9 9 9 9 8 7 10 10 10 10 10 9 9 10 10 12 13 15 17 20 20 30 29 29 28 28 28 27 26 26 23 20 19
9 10 11 9 9 8 9 9 8 8 8 7 8 9 5 6 8 8 8 8 8 8 8 9 10 11 13 14 14 15 18 23 30 29 28 27 28 26 27 25 22 20 19
7 7 7 7 7 9 6 6 7 7 7 6 7 6 4 7 7 6 6 7 8 7 7 8 9 10 11 13 13 13 16 18 29 30 29 26 26 27 27 26 24 22 20
8 9 7 5 7 5 7 6 6 7 6 5 6 5 5 5 5 5 5 6 6 6 7 7 8 8 10 11 13 13 15 16 19 24 28 28 26 26 27 26 24 23 22
7 8 5 5 6 5 6 6 6 4 3 4 5 5 5 4 5 4 5 5 5 5 5 6 6 8 9 10 11 13 14 16 17 20 30 29 27 25 27 26 24 23 23
7 7 6 6 6 5 5 4 4 4 4 4 4 4 3 4 3 3 4 3 3 3 3 4 6 7 7 8 10 12 13 13 16 19 26 29 27 26 26 26 24 23 23
6 5 5 5 5 4 3 3 3 3 2 2 2 3 3 3 2 2 2 2 1 1 3 4 5 6 7 9 12 12 12 14 15 17 20 27 27 26 26 26 25 24 23

GFSGL_sfc_30mbdewp_033.txt.gz
Dewpoint
55 56 58 58 58 58 57 54 52 50 47 45 45 44 43 43 43 43 45 40 36 36 37 38 36 34 31 27 25 25 24 23 23 22 21 22 21 20 20 22 21 19 18
55 56 58 59 57 56 55 54 53 52 50 48 45 43 43 41 42 42 40 35 34 36 42 40 37 32 29 28 27 27 26 27 25 24 23 22 22 21 22 20 18 17 14
54 54 56 58 57 56 55 55 54 52 49 44 42 42 41 41 40 41 37 32 39 41 40 39 34 32 30 29 29 29 29 28 26 25 24 23 21 21 19 18 16 14 14
53 54 54 55 55 54 54 52 50 45 42 41 42 41 40 38 36 33 37 40 41 41 41 39 34 32 31 31 31 31 30 30 30 27 25 23 20 19 17 14 14 14 10
52 52 53 53 52 51 51 50 49 46 44 42 39 38 36 35 35 36 40 41 40 40 40 36 34 34 32 32 31 32 31 30 29 27 26 22 19 18 15 13 12 12 11
48 47 48 48 47 47 46 44 43 42 40 37 36 35 35 36 41 40 40 38 39 39 38 36 36 35 34 32 31 32 32 32 31 29 27 24 20 19 17 15 13 12 9
44 44 45 44 43 42 40 39 37 36 36 36 36 37 37 40 39 39 38 37 37 37 38 39 37 33 30 28 27 31 32 32 32 30 29 28 24 21 18 16 15 12 11
41 42 42 41 40 39 37 36 35 35 35 35 35 34 35 36 38 38 37 37 38 38 39 35 29 28 27 27 27 27 29 31 33 29 25 28 27 22 18 16 16 13 15
38 38 39 39 38 37 37 38 38 37 37 37 36 35 36 37 39 37 37 38 35 32 30 28 27 27 28 27 28 29 29 29 29 29 27 26 22 19 18 18 16 13 18
38 38 38 38 38 38 38 38 39 39 39 38 39 39 38 38 37 37 35 31 30 30 29 29 29 29 29 28 29 30 30 29 29 30 29 26 24 23 23 19 17 17 17
37 37 38 38 38 38 38 38 38 37 37 37 35 32 31 30 30 32 31 31 30 28 29 30 31 32 32 32 33 32 30 31 31 30 33 28 23 21 22 23 21 18 19
37 36 36 36 34 34 31 29 26 27 28 28 30 29 30 30 29 27 25 23 21 22 22 24 25 25 26 26 28 31 33 30 30 33 34 31 25 22 21 20 22 22 22
31 28 26 25 25 25 25 25 23 24 24 25 21 22 20 22 21 24 21 20 19 20 21 22 22 22 23 23 23 24 31 32 32 31 32 32 28 24 23 22 21 20 18
27 25 25 23 21 20 17 14 15 20 19 17 17 18 17 20 19 21 18 17 17 18 19 21 21 22 24 25 26 25 27 29 31 31 31 31 31 27 27 27 24 22 20
23 21 21 19 15 13 15 15 16 19 18 17 18 17 20 19 19 17 16 16 17 17 19 20 20 20 20 21 23 24 25 26 27 31 31 32 32 30 31 29 26 25 24
19 19 20 18 14 10 11 19 18 17 18 18 17 17 17 17 15 14 15 15 15 17 15 16 17 18 18 18 18 20 23 24 26 29 31 31 31 31 30 29 28 27 24
17 16 16 16 13 12 12 12 12 19 18 17 16 14 13 13 13 13 14 13 14 13 13 12 14 15 17 16 17 18 18 20 22 27 31 31 31 31 30 29 28 26 25
15 15 14 13 13 13 13 13 13 14 15 15 15 12 11 11 11 12 12 12 12 11 11 10 11 12 14 15 15 16 17 19 20 22 30 30 31 30 29 28 27 26 24
12 13 16 17 15 14 13 13 12 12 13 12 12 11 11 10 10 13 12 12 12 10 9 9 9 11 13 14 15 16 17 17 18 22 24 31 31 30 29 29 26 27 26
12 14 15 13 13 12 11 11 10 11 11 11 11 11 11 8 10 12 11 11 11 10 9 9 9 10 13 13 15 15 16 15 17 20 19 30 31 30 29 29 27 27 26
11 12 12 11 10 10 10 10 9 10 10 10 10 11 8 7 9 9 9 8 9 8 8 8 9 11 11 13 13 14 13 14 16 17 17 30 30 28 29 29 29 27 25
9 8 9 10 9 11 10 8 9 10 9 9 9 9 8 8 9 8 7 8 9 9 8 8 9 9 10 11 13 13 12 12 15 15 15 18 29 29 29 29 29 28 25
10 11 9 7 10 8 10 10 9 10 9 8 8 8 8 8 8 7 7 8 8 8 8 8 9 9 9 11 12 12 12 13 14 14 14 17 19 28 29 28 28 27 25
10 11 8 7 9 8 10 9 9 8 7 8 8 8 8 7 7 7 7 8 7 6 7 8 7 8 10 10 11 11 13 15 14 14 16 16 18 29 29 28 28 27 26
10 10 10 9 9 9 8 8 8 8 8 7 7 7 6 6 5 5 6 6 5 5 4 5 8 8 7 8 10 11 13 12 14 16 16 16 19 29 27 27 27 27 27
9 8 8 9 8 8 7 7 6 6 6 6 5 5 5 4 4 4 4 3 4 2 3 5 5 5 7 9 9 11 11 14 15 15 16 17 21 25 27 26 28 27 26

GFSGL_sfc_30mbdewp_036.txt.gz
Dewpoint
54 56 58 58 57 56 59 59 54 53 52 50 49 47 44 44 45 44 44 44 44 43 40 41 40 41 40 37 33 31 29 28 25 26 27 26 26 26 23 26 26 25 23
55 59 58 59 60 59 58 56 55 53 52 49 47 45 44 45 44 43 43 42 42 40 41 40 40 40 40 38 34 30 29 30 28 27 28 27 26 26 25 24 24 20 19
55 58 58 59 58 57 56 55 54 53 52 50 47 45 44 43 42 42 43 43 41 41 41 40 39 41 39 37 34 32 31 31 31 30 29 28 27 27 24 24 23 21 21
54 58 58 58 57 56 56 54 49 46 44 44 44 43 43 43 42 42 43 42 41 41 40 39 40 41 37 35 34 33 32 32 32 32 31 30 29 27 25 21 20 20 17
54 55 55 56 55 55 53 51 48 45 43 42 42 42 42 41 41 40 40 41 39 38 39 40 40 39 37 36 34 33 33 33 33 33 32 31 30 27 22 21 19 17 17
52 52 52 52 51 51 50 50 48 45 44 42 41 40 39 38 36 40 40 39 38 39 39 39 39 39 39 38 36 35 33 32 31 31 31 31 30 29 26 22 19 16 15
47 48 47 46 45 44 43 42 41 40 39 38 38 38 39 39 39 39 38 38 38 37 37 38 38 38 38 36 34 32 31 32 32 31 30 31 30 31 30 24 19 18 17
44 44 44 43 42 40 38 37 37 37 37 37 37 37 38 39 39 38 37 38 38 38 38 38 38 38 33 31 31 29 29 29 30 31 32 32 32 31 32 25 22 20 19
41 41 41 40 39 38 37 37 38 37 37 37 36 36 36 38 38 38 38 38 37 35 33 32 32 31 32 33 31 32 32 32 30 30 30 32 32 30 28 25 21 17 15
39 39 39 39 39 39 40 40 39 39 37 37 39 39 38 39 38 34 33 32 31 29 28 28 28 28 28 28 27 25 25 27 31 33 33 31 30 26 24 23 24 18 18
39 38 38 39 40 39 38 39 38 38 38 38 37 37 36 33 30 26 25 25 22 22 23 23 24 24 25 23 22 21 20 22 24 27 29 32 32 28 24 22 22 21 19
39 38 38 38 37 38 37 37 35 33 32 32 31 31 32 30 26 24 22 20 20 20 20 21 22 21 20 20 23 24 25 25 25 26 26 28 30 32 30 27 24 23 22
37 36 34 31 29 28 27 26 26 28 27 23 22 23 24 25 27 23 20 18 18 19 20 20 19 19 20 22 24 23 25 26 27 26 26 25 29 32 33 29 26 25 23
29 28 26 24 22 21 17 18 25 23 21 19 21 20 22 22 21 20 18 18 18 19 18 18 19 21 21 19 19 19 19 21 22 26 27 29 29 31 32 32 30 27 24
26 24 22 20 17 18 18 20 21 17 20 20 20 21 21 20 18 17 16 16 17 17 17 18 18 19 17 16 16 16 17 18 18 19 20 21 23 30 31 32 31 28 26
23 23 23 20 16 16 19 18 20 18 18 17 17 17 18 17 15 15 14 15 15 16 17 16 16 16 16 15 14 15 15 15 16 18 18 20 22 24 30 31 31 29 27
21 21 19 18 17 16 14 18 21 19 19 18 17 15 15 13 14 14 14 14 14 15 15 14 14 14 14 13 13 13 13 14 17 16 16 18 21 27 29 29 29 28 27
16 18 18 18 17 16 17 16 15 17 18 20 18 15 14 13 13 12 14 14 14 14 13 12 12 12 12 12 12 12 13 14 16 14 15 18 19 20 29 29 28 27 27
18 19 21 20 17 16 15 15 14 14 15 15 14 16 14 12 11 13 14 15 14 13 12 11 10 11 11 12 12 12 13 13 13 14 15 16 16 16 27 29 28 28 27
19 18 18 17 15 14 13 13 12 13 13 14 13 15 15 11 10 11 14 13 12 12 12 11 11 11 11 11 11 11 11 12 11 12 14 15 14 15 20 29 29 27 27
21 17 15 13 14 13 13 13 12 12 13 13 12 13 9 9 9 13 12 11 13 11 11 12 10 10 10 10 9 10 10 9 10 11 13 13 13 14 17 29 29 28 27
13 13 13 12 11 14 12 11 11 12 12 12 12 12 11 10 13 12 10 11 11 11 12 10 10 9 9 8 9 10 9 9 9 12 11 11 12 14 16 24 29 28 27
15 14 11 9 12 11 12 12 12 13 12 11 11 12 12 12 12 11 10 10 11 11 10 9 9 7 6 9 11 9 9 9 12 12 11 11 12 13 15 16 28 28 27
13 13 10 10 11 10 12 13 11 11 11 11 12 11 12 11 11 10 10 10 9 7 7 8 4 5 9 8 8 8 10 13 12 11 13 13 12 13 14 16 27 28 27
13 13 11 12 12 12 12 11 11 11 11 10 10 11 9 9 9 8 8 9 5 7 4 2 5 6 6 6 8 10 12 11 12 14 14 14 14 14 16 20 28 28 27
12 11 11 11 11 12 11 10 10 10 9 9 9 7 8 8 6 5 6 4 6 2 1 3 2 3 5 8 8 12 10 11 12 12 16 15 15 15 16 19 26 27 27

GFSGL_sfc_30mbdewp_039.txt.gz
Dewpoint
54 53 54 57 57 57 58 58 58 54 53 52 52 51 48 46 46 45 45 45 43 44 44 43 41 42 40 40 40 37 33 31 28 27 28 27 26 26 26 31 27 29 28
52 55 56 58 58 58 58 57 56 52 52 53 52 50 47 45 45 44 44 44 42 43 43 42 40 41 40 41 40 38 35 31 28 27 28 28 28 28 27 26 26 26 26
54 54 59 59 58 58 57 56 54 53 53 50 48 46 45 45 44 44 43 43 43 43 42 41 40 39 38 40 39 36 35 33 31 30 30 31 30 30 29 27 25 25 23
59 58 58 57 56 56 55 54 52 51 50 50 47 46 45 44 44 43 43 43 42 42 41 40 38 38 40 40 37 36 35 34 33 33 34 34 34 32 30 29 27 25 24
58 57 56 56 55 54 52 49 47 46 45 45 44 44 44 43 43 43 43 42 41 40 40 39 38 40 40 38 37 36 36 34 34 34 35 36 34 33 31 31 29 29 24
54 54 55 54 54 53 51 48 46 44 43 42 42 43 42 42 42 42 42 41 39 37 38 39 39 39 39 39 38 38 37 36 34 33 32 31 31 31 31 30 29 27 24
50 50 49 48 47 47 48 47 45 43 41 40 40 39 39 38 39 40 39 38 38 37 37 37 38 38 38 36 32 32 32 32 32 31 30 30 30 30 31 31 30 29 25
46 45 45 43 42 40 40 39 39 38 37 38 38 39 38 38 39 38 37 37 37 37 38 38 36 33 32 30 28 27 27 27 28 30 31 31 32 32 32 32 31 31 26
44 43 42 40 38 37 37 36 36 36 36 36 37 38 37 38 38 37 37 37 37 33 29 28 28 26 29 27 24 23 20 17 15 17 21 25 28 27 30 31 32 29 28
41 41 40 39 38 38 38 37 38 38 37 38 38 38 38 38 36 36 34 30 27 23 23 24 24 24 25 24 21 20 20 21 22 23 24 24 25 25 28 30 30 30 29
40 40 40 40 40 39 39 39 38 38 37 36 36 37 32 28 26 25 23 21 20 19 20 20 22 23 21 19 21 23 23 25 25 26 26 25 26 26 26 29 28 29 30
39 40 39 39 38 39 38 38 38 37 35 33 31 30 27 25 24 23 21 20 20 18 19 21 21 18 19 22 23 21 19 21 21 21 21 24 26 26 27 27 28 27 29
39 38 38 38 38 37 37 34 32 32 28 26 28 28 25 24 22 20 18 18 18 19 19 18 18 19 21 22 19 16 18 19 18 17 18 19 20 20 22 28 32 32 27
36 34 32 29 25 22 26 24 23 21 21 22 22 23 24 20 19 18 17 17 18 18 18 18 18 20 21 18 17 16 17 17 16 16 16 17 17 18 20 23 26 30 27
27 24 23 21 19 21 23 19 17 20 22 20 21 21 20 19 17 16 16 17 17 17 17 17 18 17 16 15 15 15 15 14 14 14 15 15 15 16 18 21 22 30 26
23 22 21 20 18 18 19 18 19 18 18 19 20 19 19 17 15 16 15 16 15 17 17 16 14 13 13 13 13 13 12 12 13 13 15 13 14 15 18 18 20 28 28
22 20 20 19 21 21 19 18 18 20 20 19 17 16 17 14 15 14 14 15 15 15 13 13 11 10 12 12 12 11 11 11 12 13 12 12 13 15 14 16 18 28 27
22 22 21 22 21 19 18 21 21 20 20 19 18 16 16 14 14 13 15 15 14 14 14 12 10 11 12 11 11 10 10 10 10 11 10 11 12 13 12 13 14 23 27
22 22 20 19 19 19 20 19 16 16 16 16 18 18 15 14 11 11 15 13 12 13 13 12 11 11 11 11 9 10 9 9 10 8 9 10 12 11 10 11 14 17 27
23 24 24 23 22 22 20 19 17 16 16 15 15 17 14 10 7 8 13 11 13 11 10 12 12 10 9 9 9 8 7 8 7 8 8 9 11 10 10 11 12 13 26
21 22 22 21 20 19 18 16 15 16 15 13 14 12 10 9 9 12 12 12 11 10 11 10 9 8 8 8 6 6 8 7 7 7 8 10 8 9 11 12 13 14 26
20 20 19 18 18 17 15 13 14 13 14 13 12 12 12 12 14 12 11 10 9 11 9 8 8 8 6 4 6 8 6 6 6 7 9 7 9 10 11 12 13 14 22
19 18 17 16 16 13 13 15 12 12 11 10 11 12 13 12 12 11 10 9 10 7 6 7 2 1 3 6 8 7 7 7 8 10 9 8 9 10 11 12 13 13 17
17 15 14 14 12 11 13 11 10 13 13 12 11 11 10 9 8 8 8 9 6 4 2 -0 1 3 6 4 5 5 8 9 11 10 10 10 9 10 12 13 13 15 17
15 13 12 12 12 12 13 12 11 10 10 9 9 6 6 7 7 5 4 3 3 0 -1 0 1 1 1 2 3 6 9 9 9 10 10 9 11 12 13 13 14 16 18
14 12 11 12 11 10 10 10 8 7 8 7 5 5 6 5 4 1 1 3 -0 -2 -2 -1 -1 -0 1 4 5 8 6 7 8 8 8 11 11 12 13 13 15 16 20

GFSGL_sfc_30mbdewp_042.txt.gz
Dewpoint
53 53 53 53 54 55 56 56 56 56 56 55 53 51 50 49 49 48 47 46 46 45 45 45 44 42 42 42 41 41 40 36 34 32 30 29 28 27 27 35 36 34 33
54 54 55 56 57 57 58 57 57 57 57 56 53 52 50 48 47 46 46 46 45 43 43 43 42 42 40 41 41 40 39 37 35 33 31 29 28 28 28 28 32 29 29
55 56 57 57 58 58 59 58 58 57 57 53 53 51 49 48 47 45 45 45 44 43 43 42 41 41 39 39 40 40 37 36 35 33 33 33 32 31 31 32 30 30 29
54 54 55 57 58 58 58 57 57 55 53 52 50 49 48 46 45 44 44 43 43 43 42 41 41 38 38 39 39 37 36 35 35 34 34 34 35 36 34 34 34 34 30
54 54 52 56 58 57 55 54 53 52 51 50 49 47 45 45 44 43 43 43 42 42 42 40 39 39 39 39 38 38 37 37 37 36 34 34 34 33 34 34 33 33 32
57 57 57 56 55 53 51 50 49 48 47 46 45 44 44 43 43 43 43 42 41 41 39 39 38 38 39 36 32 31 31 31 30 30 30 29 30 31 31 31 31 31 30
55 55 54 53 52 50 49 47 45 44 43 43 43 43 42 42 42 42 42 41 39 38 37 36 38 36 33 30 29 28 27 27 29 28 26 25 27 27 30 30 31 32 31
51 50 50 49 48 48 45 43 41 41 40 40 40 40 39 39 40 40 38 37 36 37 37 33 30 27 30 27 24 22 21 20 17 17 18 20 21 22 24 25 24 25 26
47 46 45 44 43 42 41 40 38 38 37 38 38 38 37 38 38 37 36 36 34 30 27 26 25 24 26 25 21 19 20 21 22 23 24 26 27 27 27 27 25 24 23
43 41 40 39 39 38 38 37 37 37 37 37 37 37 37 37 37 37 36 31 27 23 22 21 22 23 23 20 20 22 22 23 23 22 21 24 26 26 27 27 26 25 25
40 39 39 39 38 37 37 37 37 37 36 36 34 31 29 29 28 27 25 23 21 19 17 18 21 20 19 21 24 23 22 20 20 20 19 18 19 21 21 19 22 24 24
40 39 39 39 39 38 38 38 37 36 34 32 29 26 25 24 24 23 22 21 19 16 18 20 19 19 21 23 22 18 17 18 19 17 16 16 16 16 17 17 19 21 25
39 39 39 39 38 38 37 37 35 33 31 29 27 24 22 21 20 19 19 18 18 18 19 18 19 20 21 21 17 16 16 18 16 15 14 14 15 16 16 16 18 20 22
38 37 36 32 30 29 28 31 30 28 28 29 26 24 21 19 18 18 17 18 18 18 17 18 18 19 19 17 17 15 16 15 14 14 13 14 16 14 13 15 16 19 19
31 27 24 25 24 20 19 20 22 23 24 24 24 24 20 19 17 17 16 17 17 18 17 17 17 14 13 13 14 14 14 13 12 12 12 13 12 12 12 14 14 15 16
24 23 22 22 20 16 16 19 21 21 22 22 22 20 20 18 17 16 15 16 16 15 16 14 11 10 11 12 12 12 11 11 11 11 11 11 10 11 11 12 12 13 15
22 22 22 21 19 19 19 19 19 21 20 19 20 20 19 17 16 15 15 16 15 14 13 12 10 10 11 11 11 10 9 10 10 10 10 9 9 10 10 10 11 12 13
23 23 22 22 22 22 22 21 21 21 20 21 21 18 17 17 16 15 16 16 14 14 14 12 11 12 11 9 9 9 9 7 8 9 7 7 8 8 9 8 9 11 12
20 21 22 23 23 23 23 23 23 22 22 22 21 18 17 15 12 14 15 13 13 13 11 10 12 10 9 9 8 7 5 5 7 6 6 7 7 8 7 7 9 10 12
24 24 23 23 23 22 22 21 21 20 20 19 19 17 16 10 8 10 13 12 11 10 10 11 9 9 8 8 6 4 4 6 6 5 6 6 7 8 7 8 9 10 11
22 22 22 21 21 20 19 18 19 18 17 17 15 13 11 11 11 13 13 12 10 10 10 9 8 7 6 4 4 4 5 5 4 5 5 6 8 6 7 8 9 10 11
20 20 19 19 18 16 17 17 17 16 16 14 13 13 14 14 14 13 12 11 10 10 9 7 5 2 2 3 4 5 4 3 4 5 6 7 7 7 7 8 9 10 12
18 17 18 17 16 15 15 15 13 13 14 13 13 12 12 10 10 9 9 8 8 6 4 0 -1 1 2 3 3 3 4 4 6 7 7 6 6 7 7 8 10 11 12
17 16 16 15 14 14 13 12 13 12 11 10 9 8 7 8 6 6 6 5 3 1 -2 -3 -1 -0 -1 -1 -0 2 5 6 8 6 7 6 6 6 7 9 10 12 12
15 14 13 12 12 11 10 10 9 8 8 7 6 5 6 4 3 -0 -1 -0 -1 -3 -4 -3 -3 -2 -2 -1 -0 2 5 2 4 6 6 6 6 6 8 9 10 12 13
11 11 11 10 8 7 7 7 6 5 6 6 5 3 3 2 -1 -2 -1 -2 -3 -3 -4 -3 -3 -3 -1 -1 1 4 -0 1 3 4 5 6 6 7 7 8 9 10 12

GFSGL_sfc_30mbdewp_048.txt.gz
Dewpoint
47 48 48 49 49 50 49 50 52 53 53 54 54 55 56 56 56 55 55 53 51 51 50 49 48 48 47 46 44 42 40 39 37 38 37 34 33 34 33 32 32 33 34
46 47 48 49 51 50 50 50 51 51 54 54 55 55 55 56 53 53 52 51 50 49 48 48 47 47 45 44 43 42 41 40 39 37 36 34 33 33 33 32 33 32 33
47 47 49 49 50 51 51 51 51 53 54 55 55 55 55 53 52 51 51 50 49 48 47 46 45 45 43 43 42 40 40 38 36 35 35 34 34 33 34 34 34 34 34
48 49 49 50 50 50 51 51 52 54 55 55 56 56 56 52 51 50 50 48 47 46 46 46 45 44 42 41 40 39 37 36 36 35 35 35 34 33 32 30 28 29 28
50 50 50 51 52 52 52 53 54 56 56 56 56 56 53 51 50 49 48 47 46 45 45 44 43 41 40 40 38 37 36 34 32 30 29 28 25 25 22 26 22 23 23
52 52 52 52 53 54 54 54 55 56 56 56 55 52 50 50 48 47 47 45 45 44 42 41 40 39 37 35 34 32 31 29 27 25 24 19 17 20 22 21 22 20 17
52 53 53 53 54 54 55 56 56 55 53 53 51 49 48 47 46 45 45 44 43 42 40 39 37 34 32 30 28 25 22 23 22 20 15 18 19 20 22 22 22 22 21
51 53 54 54 55 55 54 53 51 49 49 48 47 46 45 44 43 42 42 41 40 39 38 36 33 30 28 26 22 19 18 19 20 21 21 23 23 23 24 24 24 22 22
53 54 54 54 51 50 50 48 46 46 45 44 43 43 43 41 41 39 38 35 32 30 29 30 28 27 26 24 19 16 19 22 23 22 20 19 18 18 19 21 20 20 16
52 51 51 51 49 47 45 43 42 41 39 38 37 37 38 37 37 36 34 31 28 25 24 25 25 22 21 22 18 19 20 21 18 17 16 16 16 17 18 18 17 14 14
48 48 47 47 45 42 40 39 38 36 34 32 31 30 31 33 33 33 32 30 27 24 21 20 20 20 22 24 24 22 19 18 17 15 14 15 16 16 14 16 16 15 15
43 43 41 40 39 38 38 37 35 33 31 29 28 26 26 26 27 27 27 25 24 22 19 18 20 21 23 22 19 18 18 18 16 14 13 13 13 12 13 14 14 14 15
41 39 38 38 37 37 36 35 33 32 30 29 27 25 23 23 22 21 20 20 20 18 19 19 20 22 21 18 16 16 17 16 15 12 12 12 11 12 12 12 12 12 13
37 35 34 33 32 32 32 33 32 31 29 28 26 24 20 19 19 19 19 19 19 19 20 20 20 18 16 15 15 15 14 13 12 11 11 11 11 10 9 9 11 11 12
32 30 29 29 28 27 27 28 29 30 30 29 26 23 21 19 17 18 18 18 20 20 20 17 15 14 13 13 14 12 12 11 10 10 9 8 8 7 7 8 8 8 10
29 28 27 26 25 24 24 24 28 28 27 25 24 23 21 20 18 19 19 20 21 20 17 14 11 11 11 12 12 11 10 9 9 7 7 7 7 6 6 7 7 7 8
25 24 23 23 22 21 21 21 20 24 26 26 25 24 23 22 21 19 17 18 16 15 14 12 10 10 11 11 11 10 8 8 7 5 6 6 5 5 5 5 5 6 6
24 23 23 23 24 24 23 23 23 21 20 21 23 22 20 20 21 22 23 21 18 18 16 13 12 12 12 11 10 8 6 5 4 4 5 5 4 4 4 3 4 5 5
25 25 25 25 25 25 25 24 24 23 21 20 21 21 21 21 21 20 20 17 16 15 15 14 13 11 10 9 8 5 4 3 3 3 3 2 2 2 2 3 4 4 5
23 23 23 22 22 22 22 21 21 20 20 20 18 16 17 16 14 14 14 14 14 13 13 12 11 10 8 6 4 2 2 3 3 3 2 1 1 2 3 3 4 4 4
20 19 19 19 19 19 18 18 18 17 16 15 14 15 16 15 14 13 12 11 11 10 9 9 7 5 3 3 3 2 1 0 0 -0 0 1 2 2 3 4 4 4 4
18 17 17 16 16 15 15 15 15 14 14 14 12 11 11 10 10 9 8 7 7 8 7 3 2 1 1 -0 -1 -2 -3 -3 -2 -1 1 2 2 2 2 3 3 3 3
15 15 15 15 14 13 13 13 12 11 10 9 9 8 7 6 6 6 4 2 2 1 -1 -2 -3 -3 -3 -4 -5 -4 -4 -2 -0 2 1 -0 0 1 2 1 2 2 2
14 13 12 11 11 10 8 8 8 7 6 5 5 5 4 3 1 -1 -2 -2 -3 -4 -6 -6 -5 -5 -5 -6 -5 -4 -3 -1 2 -0 -1 -1 -1 0 1 1 2 2 3
10 8 7 6 6 5 3 3 2 2 2 2 2 1 1 0 -2 -3 -4 -4 -5 -5 -5 -6 -6 -7 -7 -7 -6 -5 -4 -1 -3 -4 -2 -1 -1 -1 -0 1 2 2 2
6 5 4 3 2 0 -1 -1 -1 -2 -2 -2 -3 -3 -3 -2 -3 -4 -5 -5 -5 -5 -5 -6 -7 -7 -7 -6 -5 -2 -2 -4 -5 -5 -2 -2 -2 -1 0 0 1 2 2

GFSGL_sfc_30mbdewp_051.txt.gz
Dewpoint
51 52 51 51 51 51 50 50 50 50 50 50 51 52 53 54 55 56 56 56 55 55 55 53 52 52 50 49 47 44 44 43 43 39 38 38 37 38 37 37 36 37 36
50 51 51 51 51 51 50 50 51 50 50 51 51 52 53 54 55 56 56 55 54 53 53 51 51 50 49 48 46 44 43 42 40 39 39 37 35 36 36 37 36 34 36
49 50 50 50 51 50 50 51 51 51 52 52 52 53 53 53 55 56 55 54 52 53 52 51 50 48 47 45 44 43 42 41 40 37 36 35 35 36 35 34 34 33 31
48 49 49 50 50 51 51 51 51 51 51 52 53 53 54 54 55 54 54 54 53 52 51 49 48 47 46 44 43 42 40 38 37 36 36 35 35 35 32 29 25 23 18
48 47 48 49 49 49 51 52 52 52 52 53 53 54 55 55 55 54 53 51 50 48 47 47 46 46 44 43 41 39 38 36 35 34 32 31 30 27 25 21 18 15 16
49 48 48 49 49 50 50 51 52 52 52 54 54 54 55 55 54 51 51 50 49 46 44 43 43 42 40 39 38 36 36 33 30 29 29 27 25 20 18 17 17 15 11
51 50 50 50 51 51 51 51 52 52 53 55 55 55 55 54 50 48 48 48 46 44 42 40 38 36 35 32 30 27 26 24 25 26 23 20 17 17 19 18 17 16 15
52 52 52 52 52 52 53 53 54 54 55 55 54 52 50 48 46 45 44 43 42 41 40 38 35 32 30 28 24 21 19 19 19 18 19 20 20 19 19 17 16 17 17
51 52 52 53 53 54 54 53 51 50 48 46 46 45 44 42 41 41 40 37 35 34 33 32 31 30 30 26 22 20 20 21 24 22 20 18 18 18 17 16 15 13 13
49 51 53 54 52 52 50 47 44 43 40 38 38 39 38 37 38 37 35 33 30 29 29 28 27 27 28 25 21 18 19 19 17 17 14 13 13 13 17 14 12 12 11
51 51 51 51 49 45 43 41 39 36 34 33 32 31 33 35 35 34 33 31 28 26 24 23 25 26 25 24 23 20 19 17 18 14 12 12 13 13 11 12 13 13 13
47 45 44 43 42 41 39 36 35 33 31 30 29 27 27 29 31 30 29 28 27 24 20 21 24 25 25 21 19 21 19 17 16 13 11 10 11 10 9 10 12 11 11
42 40 40 39 38 37 36 34 33 32 31 29 28 26 24 23 24 25 25 24 22 20 21 22 24 23 20 19 18 18 17 15 14 12 10 10 9 9 9 10 10 9 10
38 36 35 34 34 34 34 33 32 31 30 29 27 24 22 21 20 20 20 21 21 21 21 21 20 19 17 16 15 15 13 12 11 10 10 9 9 9 8 8 8 8 9
33 32 31 30 29 29 29 30 30 31 32 30 27 25 23 20 19 19 19 19 20 21 20 18 16 15 13 13 13 11 12 11 10 10 10 9 7 7 6 6 6 7 7
31 31 30 29 28 28 27 26 28 27 26 25 24 23 24 23 24 25 24 23 20 19 17 16 15 14 13 12 12 12 13 12 12 11 9 7 6 6 5 6 6 7 6
27 26 25 25 25 24 23 22 21 25 26 26 26 25 24 24 22 20 19 18 16 17 17 17 16 15 15 14 13 12 11 10 10 7 5 5 6 5 5 5 5 5 5
26 26 25 25 25 25 24 24 24 23 21 22 25 24 24 24 24 23 22 21 19 18 17 15 14 14 13 11 10 9 8 7 5 4 4 4 4 4 4 3 3 4 4
25 25 25 25 25 26 26 25 24 22 21 20 19 20 21 21 20 20 19 17 16 14 13 13 13 11 10 9 9 7 5 4 4 4 3 3 3 4 3 3 3 3 4
22 22 23 23 22 22 22 22 21 21 20 18 17 16 17 16 15 14 15 14 13 12 12 11 10 9 8 6 6 5 4 3 2 2 1 2 3 3 3 3 3 3 3
20 20 20 19 19 19 19 18 18 17 15 14 14 15 15 13 12 12 11 10 10 9 8 8 7 6 5 4 3 2 1 1 0 -0 0 1 2 2 2 3 3 3 3
18 17 17 16 16 16 15 15 14 14 13 11 11 11 10 10 9 8 7 7 7 6 5 4 3 2 2 1 0 -0 -1 -2 -1 -1 0 0 1 1 1 2 2 2 3
15 14 14 13 12 12 12 11 11 10 9 8 7 6 6 6 5 4 4 4 3 3 2 1 0 -1 -1 -2 -2 -3 -3 -3 -2 -1 -0 -1 -1 -1 0 1 1 1 2
12 11 10 10 9 8 8 8 7 6 5 6 5 5 5 4 3 2 2 2 1 1 -0 -1 -2 -3 -4 -4 -3 -3 -4 -3 -2 -1 -2 -2 -2 -1 -0 0 0 1 2
8 7 7 6 6 5 4 3 3 3 3 3 3 3 2 2 1 1 0 -1 -2 -2 -2 -2 -2 -3 -4 -5 -5 -5 -4 -3 -3 -3 -3 -3 -2 -2 -1 -0 0 1 1
4 4 3 3 2 1 1 1 0 0 0 1 1 1 -0 -1 -1 -1 -2 -3 -3 -4 -4 -4 -4 -5 -6 -6 -6 -6 -6 -6 -6 -6 -5 -3 -2 -2 -1 -0 -0 1 1

GFSGL_sfc_30mbdewp_054.txt.gz
Dewpoint
51 52 52 53 53 54 54 53 53 53 52 52 52 52 52 52 52 52 53 53 53 54 56 56 55 55 54 53 53 51 50 49 47 44 40 40 39 41 38 39 39 39 38
50 51 53 53 53 53 53 53 54 53 53 53 52 52 51 51 51 51 52 52 52 53 54 56 55 54 53 52 51 50 48 48 46 43 41 39 40 40 39 38 38 36 36
50 51 52 53 53 53 53 53 52 52 52 52 51 51 50 50 50 52 53 53 53 53 55 55 53 54 52 51 49 47 46 44 44 41 40 39 40 38 37 38 37 37 36
50 51 51 52 53 53 53 52 53 52 51 51 51 50 50 50 51 51 52 53 53 54 54 55 54 53 51 49 47 45 44 42 41 40 39 37 37 37 37 35 33 33 29
50 50 51 52 52 51 51 51 51 52 51 51 50 50 51 51 52 52 52 54 54 54 54 54 53 51 49 47 45 43 41 40 38 38 36 36 35 33 32 32 27 25 19
50 50 50 51 51 51 51 51 51 51 51 51 51 50 51 52 53 53 55 55 54 54 51 49 48 47 46 44 43 42 41 39 38 36 34 32 31 30 29 25 22 16 12
50 50 49 50 50 50 51 50 50 51 52 51 51 51 52 52 53 53 53 54 53 51 48 44 42 41 40 37 36 34 32 31 33 32 31 30 28 26 23 20 17 16 15
50 49 49 49 49 50 50 50 50 51 52 52 53 53 54 54 53 52 49 49 47 45 43 41 39 37 35 33 30 26 24 23 21 19 21 22 22 20 19 16 16 15 16
49 49 49 50 50 50 51 51 53 53 54 53 52 53 52 47 45 44 44 41 39 37 37 36 34 32 32 30 25 22 22 23 26 23 20 19 17 17 16 13 14 12 15
47 48 50 51 51 51 52 54 51 48 43 40 39 40 40 39 39 39 38 35 32 31 30 31 32 30 28 26 24 23 24 23 19 18 17 16 15 15 17 14 11 11 12
46 49 50 52 53 54 49 45 41 38 36 34 33 33 34 35 35 35 35 33 30 29 28 28 29 29 28 26 23 23 24 21 18 15 13 11 11 12 12 11 10 10 11
52 50 49 47 45 43 41 39 37 35 33 31 30 28 29 31 32 32 31 30 30 26 25 27 28 28 26 25 24 22 20 19 18 15 12 10 10 10 9 8 8 10 10
44 42 41 40 39 39 38 36 34 33 31 29 28 26 25 26 28 29 28 27 27 25 25 27 28 26 23 23 22 20 19 17 17 17 13 11 9 8 8 9 11 10 8
38 37 36 36 35 35 34 34 33 31 30 28 26 25 24 24 24 25 25 24 24 25 27 26 22 22 22 20 18 18 16 13 12 12 12 12 11 12 12 11 10 9 8
34 33 32 31 30 28 29 30 30 32 31 28 26 25 23 22 23 23 23 23 23 23 23 23 23 20 18 16 14 13 13 13 14 15 15 15 14 12 11 9 7 7 8
31 31 30 29 28 27 26 25 28 28 27 27 26 25 25 25 26 26 25 24 24 25 23 21 20 19 18 18 19 19 17 15 14 13 13 12 11 10 9 8 7 7 7
28 28 27 26 26 26 25 23 22 25 26 26 26 26 26 26 26 25 23 21 22 23 22 21 20 19 18 16 15 14 13 13 10 10 9 9 8 7 7 6 6 6 6
27 27 26 26 26 25 25 25 24 23 21 22 25 25 25 25 24 23 23 23 20 19 18 18 17 16 14 12 11 10 10 9 9 7 7 7 6 6 6 5 5 5 4
26 26 27 27 27 27 27 26 24 22 20 20 20 21 22 21 20 19 20 19 17 15 13 13 13 11 11 9 10 9 8 8 7 7 6 6 6 6 4 3 3 3 3
24 24 25 24 24 24 24 23 22 21 20 19 19 19 21 21 17 16 15 15 14 12 11 10 9 9 9 7 8 7 6 5 4 3 3 4 4 4 4 3 3 4 3
22 22 23 22 22 22 21 21 20 19 16 15 14 14 14 14 13 12 11 11 10 9 9 7 7 6 5 5 3 4 3 3 2 2 2 2 3 3 2 3 3 2 3
20 20 19 18 18 17 17 16 16 14 13 13 11 10 11 11 10 8 7 8 7 6 5 4 4 3 2 2 2 2 1 1 1 1 1 1 1 2 1 1 2 3 4
17 16 15 15 14 14 14 13 13 12 11 10 9 8 7 7 6 5 5 6 4 4 4 2 2 1 1 1 1 0 0 -0 -0 0 -0 0 -0 -1 0 1 1 2 3
12 11 10 10 10 10 10 9 7 6 7 7 7 6 5 5 5 4 4 3 2 3 2 2 0 -1 -1 -2 -0 -1 -1 -1 -1 -1 -0 -1 -1 -2 -0 1 1 2 3
9 8 8 8 7 7 6 5 6 5 5 5 5 4 3 3 2 3 2 1 0 0 -0 -1 -0 -1 -2 -3 -3 -3 -3 -3 -3 -4 -3 -2 -2 -2 -1 0 1 2 2
5 5 5 5 5 4 4 4 3 3 3 3 3 2 2 1 1 1 0 -1 -1 -2 -2 -1 -2 -3 -3 -4 -4 -4 -5 -6 -6 -5 -5 -3 -2 -1 0 1 1 1 1

GFSGL_sfc_30mbdewp_060.txt.gz
Dewpoint
55 55 55 54 54 55 54 54 54 53 53 52 52 53 54 56 56 56 55 55 55 54 54 54 55 55 54 55 55 54 54 54 52 52 51 50 48 48 48 48 47 46 44
53 56 55 55 55 55 55 54 54 54 54 53 52 52 53 53 54 54 54 54 54 53 54 53 53 53 54 54 55 55 55 54 53 50 51 46 46 45 46 45 45 44 43
51 54 56 56 56 55 55 55 55 54 55 54 52 51 51 52 53 53 53 53 52 52 52 51 52 52 52 53 54 54 55 54 53 51 50 43 43 43 43 43 43 42 41
51 51 54 56 56 56 56 56 56 56 55 54 54 53 52 51 51 51 51 51 51 52 52 52 52 52 52 53 54 55 55 53 52 51 49 42 41 41 42 41 39 40 39
52 51 50 54 56 56 56 56 56 56 56 56 55 54 53 53 51 51 51 51 52 52 52 52 53 53 53 53 54 54 54 52 51 48 46 40 40 38 39 40 39 39 40
53 52 52 51 53 55 55 56 56 56 56 56 56 55 55 54 52 51 52 53 52 52 52 52 52 52 52 52 53 54 54 52 49 45 44 41 40 38 39 38 37 35 33
52 53 53 52 52 53 54 55 55 55 56 56 55 55 55 55 53 51 50 52 52 52 52 52 52 53 53 50 43 40 38 39 41 44 42 38 36 37 37 36 34 30 27
42 50 52 53 53 53 54 54 54 55 55 55 55 55 55 54 53 52 50 51 52 52 53 54 54 51 48 45 39 34 32 32 34 35 34 31 31 30 29 28 23 20 20
46 39 48 51 52 53 53 53 54 54 55 55 55 55 54 54 50 50 48 49 47 42 39 40 41 40 39 38 35 32 29 28 31 31 30 30 29 24 20 24 21 17 19
50 52 51 44 51 52 52 53 54 54 54 53 45 42 43 43 45 48 47 43 39 34 32 32 33 33 34 33 31 28 26 26 25 24 19 18 19 19 16 14 16 16 17
44 49 48 49 51 51 52 53 53 50 42 38 36 34 34 35 36 39 40 37 33 31 30 29 31 32 32 31 30 28 26 27 27 27 27 27 26 24 19 17 16 14 14
42 45 44 43 44 46 47 44 42 40 37 33 32 30 31 32 33 34 33 32 31 29 28 28 29 30 29 28 28 28 28 28 27 26 25 24 21 18 19 19 18 16 15
37 37 37 37 37 39 39 38 37 35 33 31 29 27 27 29 30 31 31 30 29 27 28 28 27 26 26 27 27 27 27 26 26 25 24 24 24 24 22 20 21 20 19
31 31 30 29 30 32 34 34 33 32 30 29 27 25 25 26 27 27 27 26 26 25 25 24 24 24 24 25 24 23 23 23 23 22 22 23 24 23 21 20 18 17 15
29 28 28 27 27 26 27 28 27 29 29 27 26 25 24 24 26 26 25 25 25 25 25 25 25 24 23 22 22 23 23 22 19 19 18 17 15 15 15 15 16 16 14
27 26 26 25 25 25 25 25 28 28 28 28 27 26 27 28 28 28 28 28 28 29 26 24 23 23 22 21 21 20 19 16 15 15 14 14 14 14 13 12 13 13 12
27 27 26 25 25 24 23 21 20 24 26 26 27 27 27 27 27 27 27 27 27 24 21 20 20 20 19 19 18 17 16 14 15 13 11 11 11 11 11 10 10 10 9
27 27 26 25 24 23 23 22 21 20 19 21 24 25 26 26 27 26 25 22 20 20 19 18 17 17 15 13 13 13 12 13 11 10 9 10 10 8 7 8 8 7 8
25 25 26 25 25 24 23 22 21 21 19 19 20 20 22 22 22 21 19 18 16 15 14 14 13 13 13 13 13 11 10 8 8 7 8 7 7 8 7 7 7 6 6
24 24 25 24 23 22 21 19 18 18 18 18 19 19 19 17 15 15 15 14 13 13 12 11 11 11 11 9 10 8 6 6 6 6 5 6 7 6 5 6 6 6 5
22 22 23 22 22 22 20 18 17 16 16 16 16 16 15 14 12 12 12 11 11 11 10 11 10 9 8 7 7 7 6 5 5 5 6 4 3 3 5 5 5 5 4
21 19 18 18 18 18 18 18 17 16 15 14 13 12 13 12 11 11 10 10 10 8 8 9 8 8 7 7 5 5 4 4 5 5 3 3 3 3 4 3 3 2 3
14 15 15 15 14 13 12 14 14 14 13 12 12 11 10 9 10 9 8 9 10 8 7 6 5 6 3 4 6 5 4 5 4 1 1 1 2 2 1 1 3 2 2
13 13 12 12 12 12 12 12 11 11 12 11 11 10 9 10 10 8 8 6 6 7 5 4 5 2 1 2 1 1 4 2 0 0 -2 -3 -2 -0 1 1 0 1 3
11 11 11 12 11 11 10 10 10 10 10 10 9 9 8 9 7 8 5 6 3 2 3 4 3 2 1 -1 0 1 -3 -4 -5 -5 -3 -2 -2 -2 -0 1 2 4 2
9 9 9 10 10 10 9 9 8 8 8 8 7 8 8 6 4 5 5 -0 -1 1 2 1 2 -1 -1 2 -0 -3 -4 -4 -2 -1 -2 -2 -2 -1 1 1 0 1 2

GFSGL_sfc_30mbdewp_066.txt.gz
Dewpoint
55 55 55 55 55 54 53 51 50 51 50 50 53 54 54 53 53 53 54 55 55 54 54 55 55 54 54 54 54 53 52 52 50 49 50 50 51 51 51 51 51 51 51
55 55 55 55 55 55 54 53 52 50 50 49 49 53 54 54 53 52 51 51 54 54 54 54 54 54 54 54 54 53 53 52 51 49 50 50 50 51 51 50 51 51 50
54 54 54 55 55 55 55 54 54 53 51 51 49 48 50 54 54 54 53 52 52 54 54 54 53 53 53 53 53 53 53 53 53 52 50 51 51 48 48 48 49 49 49
55 54 53 54 54 54 54 54 54 54 53 52 51 50 49 48 51 53 53 53 52 52 53 54 54 54 53 53 53 53 53 52 52 52 52 52 51 48 47 48 47 47 48
54 55 54 54 54 54 54 54 54 54 54 53 53 53 52 51 49 49 50 50 51 52 53 53 54 54 53 53 53 53 53 53 52 52 52 52 50 43 47 48 47 48 45
46 46 52 55 55 55 54 54 54 54 54 54 53 53 53 53 52 50 50 50 50 50 52 53 54 53 52 51 51 51 52 52 52 51 51 51 51 49 49 48 46 40 40
41 42 44 45 49 54 55 55 54 54 54 54 54 54 53 53 52 51 50 51 51 52 51 51 51 52 51 52 49 47 43 40 41 49 51 51 51 51 49 42 39 38 35
37 38 40 42 45 45 46 49 55 55 54 54 54 54 54 54 53 51 50 50 51 51 52 52 52 52 52 51 48 41 36 34 34 37 40 35 34 35 38 36 34 31 31
35 35 37 39 39 40 42 43 45 46 53 55 55 55 55 54 54 51 50 52 52 52 51 50 50 51 52 50 43 36 31 29 32 32 32 32 32 33 33 33 31 31 27
33 33 33 33 34 36 38 39 42 43 44 50 56 56 55 55 53 51 51 54 53 52 41 39 41 46 47 45 42 34 29 27 28 28 28 28 28 28 29 30 30 29 26
31 30 29 29 29 32 33 35 39 40 40 41 43 36 36 35 37 39 45 51 50 41 36 33 33 34 34 34 33 31 28 28 27 27 26 25 25 25 26 26 26 26 24
28 28 27 27 27 28 30 31 34 35 35 33 31 30 30 30 32 33 35 36 36 33 30 30 31 31 31 30 29 29 28 28 26 25 23 23 23 23 24 25 26 25 25
26 25 26 25 25 27 27 28 29 31 31 30 28 27 26 27 28 29 30 30 30 29 29 29 28 27 26 26 27 26 26 25 23 21 21 21 22 23 23 23 23 21 18
24 24 24 24 23 24 26 26 27 27 27 27 26 24 25 25 25 26 26 25 25 24 24 24 24 23 23 22 22 22 21 21 20 19 19 20 21 19 18 20 17 15 14
23 23 23 23 23 22 24 25 26 28 28 26 26 26 24 24 26 26 25 25 24 24 23 23 21 19 18 18 18 19 19 18 17 18 17 16 16 15 13 13 11 11 12
21 21 21 20 20 20 21 20 22 25 27 27 28 27 27 27 27 27 26 26 25 24 20 18 17 17 16 16 16 15 15 15 15 15 14 13 11 11 10 10 10 9 9
21 22 21 21 20 19 19 18 18 20 21 23 24 25 25 25 24 24 23 22 22 19 16 15 15 15 15 15 14 13 13 13 13 11 10 10 9 9 9 7 7 6 6
21 21 20 19 19 19 19 19 18 17 16 16 19 20 21 21 21 21 20 17 15 15 15 14 13 13 13 13 12 11 10 10 9 8 7 7 8 7 6 6 6 5 5
21 20 19 19 18 18 18 17 17 16 15 15 15 15 16 17 16 16 16 14 13 12 12 11 11 10 10 10 9 9 8 7 6 4 3 3 3 5 5 5 4 4 4
19 20 19 18 17 16 16 16 15 14 13 12 12 12 13 11 9 9 10 10 10 10 9 8 8 8 8 7 7 6 5 5 4 4 1 0 1 4 3 2 2 2 3
17 16 16 18 17 17 16 14 13 12 11 11 11 11 10 9 8 7 7 7 7 7 7 6 6 6 6 5 5 2 1 1 0 -1 -1 -0 -0 -0 1 1 1 1 1
15 15 14 14 14 14 13 13 12 11 10 10 10 9 8 8 7 7 6 5 6 6 5 4 5 4 3 3 2 1 -0 -2 -3 -4 -4 -4 -4 -3 -2 -2 -2 -3 -1
13 12 12 12 12 12 11 12 11 10 9 9 8 7 6 5 5 4 4 3 4 3 2 1 1 -1 -1 1 0 -1 -1 -2 -4 -6 -7 -7 -5 -4 -4 -4 -2 -2 -1
11 11 11 9 9 9 8 8 8 7 7 7 7 6 5 3 1 -1 -1 -0 1 3 2 1 -1 -2 -1 -2 -3 -3 -5 -6 -6 -6 -6 -6 -5 -5 -5 -3 -2 -2 -2
8 8 7 6 5 5 5 5 4 3 4 4 4 3 3 2 -2 -3 -2 -2 -1 -0 -0 -1 -2 -2 -2 -3 -4 -5 -5 -4 -4 -5 -5 -5 -6 -6 -6 -5 -5 -4 -3
6 5 5 4 2 2 2 3 1 0 1 1 -0 -1 -1 -1 -3 -4 -5 -5 -5 -4 -3 -1 0 -1 -1 -1 -2 -3 -4 -6 -8 -7 -8 -7 -7 -7 -7 -6 -5 -4 -3